GFSMA_sfc_thetae_024.txt.gz
Theta_e
335 332 332 330 328 327 325 324 323 321 319 318 318 316 315 315 315 314 314 316 316 316 318 320 320 319 319 319 320 323 325 325 326 327 330 330 330 330 331 331 331 331 331
331 331 329 327 326 324 323 321 319 317 316 316 315 315 314 314 314 314 314 315 311 310 312 313 314 314 314 314 314 315 318 321 324 325 326 330 330 330 330 330 330 331 331
326 327 325 325 323 322 320 318 317 316 315 314 313 313 313 314 313 313 313 314 314 309 308 308 309 310 310 311 311 312 313 315 318 322 324 327 329 329 329 329 329 329 329
322 323 320 318 318 316 315 314 314 312 312 312 312 312 311 313 312 312 313 314 313 312 310 307 306 306 306 307 308 310 311 313 314 316 319 323 324 327 328 328 329 329 328
318 317 316 316 316 314 313 312 312 312 311 311 310 309 309 309 308 306 310 312 311 310 309 310 307 307 305 305 307 308 309 311 313 314 316 317 319 322 324 327 328 328 328
316 317 316 314 314 313 313 313 312 311 309 308 305 303 305 305 306 307 309 308 308 308 308 307 307 306 306 304 305 306 308 310 311 312 313 314 315 317 319 321 325 327 328
314 314 314 314 314 312 311 310 308 307 305 306 303 302 302 304 307 307 307 306 306 306 306 305 305 304 304 305 304 304 306 309 308 309 310 311 312 313 316 318 321 323 326
313 312 312 311 311 308 308 308 307 305 304 304 300 298 295 298 301 303 302 303 303 303 303 303 303 303 303 303 304 303 303 305 305 306 307 308 309 310 312 315 318 320 324
312 311 310 309 308 307 305 307 305 303 300 300 300 297 293 292 295 298 300 299 301 300 300 300 301 300 301 302 302 302 301 300 302 303 305 306 307 308 310 312 314 317 320
310 308 309 309 309 307 306 305 302 302 300 297 298 298 298 296 291 290 296 297 298 297 298 297 299 298 299 299 300 301 297 297 297 301 304 304 304 306 308 309 311 314 317
310 309 309 309 309 307 305 303 301 300 299 297 297 295 295 295 294 291 287 291 294 295 296 296 296 296 297 297 298 298 297 297 296 300 303 302 302 303 305 307 309 311 314
307 308 308 308 308 306 303 302 302 301 299 298 296 295 293 291 290 290 288 289 289 292 294 295 295 295 296 296 295 297 297 297 297 296 298 301 301 301 302 304 307 309 310
303 303 304 304 305 305 303 303 301 300 299 297 296 295 295 293 293 291 290 289 288 290 291 293 294 294 294 295 295 296 295 295 295 296 295 297 299 299 299 301 304 307 308
300 301 302 303 304 304 303 302 301 299 298 296 296 296 294 293 293 292 290 288 286 287 289 289 293 293 293 293 294 293 293 294 295 296 295 295 297 298 298 298 299 301 304
299 300 301 301 302 302 302 301 300 298 299 297 297 295 293 293 294 293 292 290 287 283 284 288 288 292 291 292 292 292 292 292 293 294 294 294 296 297 296 296 297 298 300
300 299 299 300 300 301 301 300 298 299 297 296 294 293 293 293 293 292 291 290 289 286 284 287 287 289 290 289 290 291 291 292 291 291 293 293 295 296 296 295 296 297 298
299 298 299 299 299 299 298 298 298 298 296 294 293 293 293 293 291 291 291 290 288 287 283 286 287 288 288 288 288 290 290 291 292 292 293 292 292 292 294 294 294 295 296
299 298 298 298 298 297 298 296 296 294 293 292 292 292 291 291 290 290 289 288 287 286 283 282 284 285 285 287 287 288 288 289 291 291 292 290 289 291 294 294 294 294 294
298 298 298 297 296 296 295 293 294 293 292 292 292 291 290 289 288 287 287 286 285 284 284 283 282 284 284 285 285 287 287 289 289 291 291 290 290 290 291 293 294 294 294
297 297 297 297 296 295 294 293 292 292 292 291 290 289 288 286 285 285 284 284 283 283 283 281 281 281 283 285 285 283 284 287 287 290 291 289 289 290 290 293 294 294 293
297 297 296 296 295 294 292 292 292 291 290 289 288 287 286 284 282 282 282 282 281 280 280 280 280 281 281 282 282 284 282 284 286 288 289 290 289 291 292 292 292 292 291
296 296 295 294 293 291 285 284 285 288 288 286 285 285 285 284 283 281 281 281 281 280 280 280 280 280 281 281 282 282 282 281 281 287 287 287 290 288 289 292 289 288 289
295 294 294 293 292 291 283 282 282 286 286 285 284 284 283 283 283 282 281 281 282 282 281 282 280 281 282 283 283 282 282 281 282 285 285 285 288 287 289 289 289 288 289
294 294 293 292 291 288 281 281 281 286 286 285 284 284 283 283 283 280 280 281 282 283 282 282 282 282 283 284 283 283 283 283 284 285 286 282 287 286 288 290 289 288 289
293 293 292 291 290 288 281 280 281 285 285 284 284 284 282 281 280 280 279 279 280 281 282 282 282 282 282 283 283 283 281 280 280 282 285 284 284 285 286 288 291 288 288
291 291 290 290 284 287 280 280 281 285 283 283 284 283 280 279 278 278 278 278 278 279 279 280 281 282 284 284 283 284 282 280 280 281 285 283 283 283 283 289 289 291 291

GFSMA_sfc_thetae_027.txt.gz
Theta_e
335 331 331 328 327 326 326 325 324 323 321 320 319 318 317 317 317 316 315 317 316 315 315 316 317 317 317 316 316 316 318 321 323 325 326 328 331 330 330 330 330 331 331
333 328 326 323 326 325 325 323 321 319 318 318 316 317 315 315 315 316 314 315 314 314 313 312 312 313 314 313 312 313 314 316 317 320 323 325 327 329 330 329 329 330 330
328 324 322 323 324 321 321 320 319 317 315 315 314 314 314 314 313 314 313 312 314 312 311 309 309 309 309 310 310 311 311 312 314 316 318 320 322 324 326 328 329 329 329
321 322 320 318 318 318 317 316 315 314 314 313 313 313 312 310 310 311 309 310 312 312 310 308 306 307 307 307 308 310 310 310 311 313 315 317 318 319 321 323 325 329 328
320 319 318 318 318 316 316 315 315 314 312 311 309 308 308 306 307 306 307 308 312 310 309 311 311 310 305 306 307 308 308 310 311 311 312 314 315 316 317 319 321 324 328
319 320 318 317 317 315 315 314 313 311 309 307 304 304 307 305 306 306 308 309 309 308 308 307 306 305 309 306 306 307 307 309 309 309 310 310 311 312 314 315 317 320 323
317 317 317 316 315 313 312 312 310 307 305 306 303 302 302 305 306 305 306 306 305 305 305 305 304 303 304 307 305 305 307 307 307 307 307 308 308 309 310 312 314 316 319
315 314 314 313 312 309 308 307 307 304 304 304 299 298 294 297 301 303 302 302 303 302 302 302 301 301 301 301 302 303 304 304 304 304 304 305 306 307 308 309 311 313 315
313 312 311 310 309 308 306 306 306 304 300 302 303 298 292 291 294 298 299 299 302 300 301 300 300 299 300 299 300 300 300 299 300 301 302 304 305 305 306 307 309 311 312
311 310 309 309 309 308 307 306 305 303 302 298 300 300 299 296 291 289 295 296 298 297 300 298 298 298 298 298 299 300 298 297 297 298 300 303 304 304 304 305 306 308 310
310 309 309 309 308 307 307 305 304 303 302 299 297 297 296 295 295 291 288 290 294 295 297 297 297 297 297 297 298 299 298 297 296 296 298 300 302 304 303 303 304 306 307
307 306 305 305 305 305 305 304 304 303 301 299 299 296 294 292 291 290 288 289 290 293 294 296 297 297 297 297 297 298 297 297 295 295 296 297 299 300 302 302 302 302 305
302 303 303 302 302 303 304 305 303 302 300 299 298 296 295 294 294 292 290 289 289 291 292 295 296 296 294 296 296 297 295 295 295 295 295 296 297 297 298 300 300 301 301
301 302 302 301 301 302 303 304 302 300 301 300 298 297 296 295 295 293 290 289 287 287 289 289 294 295 295 295 295 295 293 294 293 294 294 294 295 295 296 298 298 299 299
300 301 301 300 300 301 301 302 301 300 300 300 299 298 296 296 295 294 293 291 288 284 285 289 289 293 293 294 294 294 293 293 293 293 292 292 293 294 294 297 297 297 298
301 300 300 299 300 300 300 300 299 299 298 299 297 296 295 295 294 293 292 292 290 288 284 288 289 291 291 290 291 292 292 293 292 292 292 292 293 293 294 296 296 296 296
300 299 299 298 298 298 298 299 298 298 297 297 296 295 294 294 292 292 293 291 290 289 286 287 289 289 288 288 289 290 291 291 291 292 292 293 293 294 293 292 294 295 295
301 299 298 298 297 297 297 296 296 296 294 293 293 293 292 292 291 290 289 288 288 288 286 283 285 286 286 287 288 288 288 288 289 291 292 292 292 292 292 291 293 294 294
300 299 298 297 296 296 295 295 294 293 293 293 293 292 291 290 288 288 287 286 286 286 286 283 282 285 285 286 286 287 287 287 288 290 291 291 291 291 291 291 292 293 294
298 297 297 297 297 296 294 294 293 293 293 292 292 290 289 288 287 285 284 284 284 283 282 281 282 282 283 285 285 284 284 287 286 287 289 290 291 290 291 291 292 293 294
297 297 297 296 296 294 293 292 292 291 290 290 290 289 288 286 283 283 282 282 282 280 280 279 280 281 282 282 282 284 283 284 285 287 287 289 290 292 291 292 290 293 292
296 297 296 295 294 293 285 285 285 288 289 288 287 287 287 287 286 284 283 282 282 280 280 281 280 279 280 281 283 283 283 282 280 288 285 286 288 289 290 291 292 290 289
296 295 295 295 294 292 285 283 283 286 287 287 287 286 285 285 285 284 283 282 282 283 282 282 280 280 280 281 282 281 282 282 281 284 285 283 287 286 289 289 290 289 289
295 295 294 294 293 290 284 282 282 286 288 287 287 286 285 284 283 281 280 280 281 282 283 282 282 281 282 282 282 282 282 282 283 285 286 281 286 286 289 290 290 290 289
294 294 293 292 291 289 283 282 282 286 286 286 286 286 284 283 281 280 279 278 279 280 283 283 282 282 283 283 284 283 282 281 280 281 285 283 285 285 287 288 290 290 289
293 293 291 292 288 290 283 282 281 285 285 285 285 285 282 280 279 278 278 278 277 279 279 279 280 282 283 284 284 284 283 280 280 280 284 283 283 284 282 288 289 291 291

GFSMA_sfc_thetae_030.txt.gz
Theta_e
330 330 327 323 322 323 322 320 319 318 315 314 315 314 313 312 312 312 311 318 318 315 315 316 316 316 315 315 314 315 315 316 317 319 320 323 326 327 329 330 329 329 329
328 326 323 321 322 318 317 316 314 313 313 314 312 313 313 312 310 309 309 310 316 317 314 313 312 312 311 311 311 312 313 313 314 315 316 318 320 323 324 326 328 329 329
324 322 321 317 316 316 314 313 313 313 312 312 311 311 310 308 305 305 307 306 308 315 314 311 309 309 310 309 309 309 310 311 313 313 314 315 317 318 320 322 323 325 328
321 317 317 316 316 316 314 312 312 311 309 309 307 306 305 304 303 304 303 304 303 308 311 311 308 308 308 306 308 309 310 309 310 311 312 312 313 314 316 317 318 320 323
319 318 317 316 315 314 313 313 310 309 306 304 303 300 302 301 302 303 302 304 306 307 306 312 312 311 306 307 307 309 309 309 309 310 311 310 311 311 312 313 315 316 318
318 317 315 313 313 312 310 309 308 306 303 301 302 301 301 300 300 301 302 305 303 303 305 303 303 302 307 307 306 307 309 309 309 309 308 307 308 308 309 310 311 312 315
316 315 314 313 312 309 307 305 303 302 301 301 298 297 297 297 297 298 298 297 298 300 299 300 298 297 298 303 304 305 306 307 307 306 305 305 305 306 307 308 309 310 312
314 313 311 309 308 305 304 304 303 300 300 300 296 294 291 293 295 296 295 296 295 298 298 297 297 298 295 296 297 302 303 302 303 303 303 303 304 305 306 306 307 308 310
312 310 308 307 306 305 303 303 301 300 296 297 298 294 289 287 290 293 292 294 293 293 294 296 296 296 295 295 295 297 301 298 298 299 301 301 302 303 306 306 306 306 307
310 308 307 306 306 305 303 302 302 299 297 294 296 298 295 292 287 286 289 291 292 292 291 292 293 294 294 293 297 301 299 297 296 296 298 299 300 301 303 305 305 304 305
309 307 307 305 303 303 302 302 301 299 298 295 293 293 293 291 290 286 284 286 289 290 291 291 291 292 293 293 292 295 299 298 295 296 297 297 298 299 301 302 304 304 303
305 304 303 301 301 300 300 300 300 301 296 296 295 294 292 289 287 286 284 285 286 288 289 290 290 290 291 291 295 298 297 296 296 295 295 296 297 298 299 300 301 302 303
300 300 300 299 298 299 300 300 299 297 297 295 294 294 293 292 292 290 287 286 284 287 287 288 289 290 291 290 291 297 296 296 296 294 294 294 294 295 298 299 299 301 301
299 299 299 299 298 298 298 298 298 298 297 295 294 294 294 294 294 291 288 285 283 284 286 285 288 288 289 290 292 296 290 294 294 294 294 293 293 293 294 295 297 298 300
299 299 298 298 298 297 297 297 296 297 296 295 294 294 294 295 294 291 290 289 286 281 281 284 284 288 289 288 289 288 288 292 293 293 293 293 293 293 293 294 294 296 297
299 298 298 297 297 297 296 295 295 295 295 294 295 293 293 292 290 290 289 289 287 285 280 284 285 285 286 288 289 287 287 291 291 291 292 292 293 294 294 294 293 294 296
298 298 298 296 296 295 295 294 293 293 293 292 292 292 292 291 289 288 289 286 285 284 281 283 284 285 284 284 285 286 287 286 287 290 291 292 292 292 293 294 294 294 293
299 298 298 296 296 295 295 293 292 292 292 291 291 291 290 290 287 286 284 283 282 283 281 279 281 282 282 283 284 284 285 287 286 289 291 291 291 291 292 293 292 292 292
298 298 297 296 295 295 293 293 292 291 291 291 289 288 288 286 283 283 281 280 281 282 281 279 278 281 281 282 282 283 284 284 287 290 290 290 291 291 291 292 292 292 292
298 297 296 296 296 294 293 293 292 290 290 289 289 288 286 284 282 280 280 279 280 279 279 278 278 278 279 281 282 280 280 282 282 286 288 288 290 290 291 292 292 292 292
297 296 295 295 294 294 292 290 289 287 286 286 286 287 285 284 284 282 280 278 278 277 277 277 277 278 278 278 277 280 280 280 281 283 283 283 286 287 288 290 291 292 291
296 295 295 294 293 293 287 286 285 283 285 285 283 283 284 286 285 285 285 283 281 277 276 276 277 276 277 279 280 279 278 277 276 282 281 281 284 284 287 287 290 291 289
295 294 294 293 292 286 287 285 283 282 283 283 283 282 283 285 283 280 281 281 281 282 281 279 278 278 278 278 278 277 277 277 277 280 280 278 281 282 286 288 289 290 290
293 293 292 292 291 288 286 285 283 281 282 283 283 283 281 281 278 279 278 277 278 278 279 280 277 277 278 279 279 279 278 278 280 281 282 277 279 281 283 283 289 290 290
292 292 292 291 290 285 285 284 282 281 282 282 284 283 282 280 280 280 277 276 276 277 281 281 281 281 283 284 284 281 278 277 276 278 281 278 279 281 280 280 283 289 290
292 292 290 290 287 285 285 284 282 280 280 281 282 282 281 279 279 279 275 275 273 276 276 276 277 280 281 282 284 283 281 279 279 278 281 278 280 280 277 280 285 285 283

GFSMA_sfc_thetae_033.txt.gz
Theta_e
323 321 319 318 316 316 315 312 312 310 310 311 310 310 310 309 306 306 305 319 319 317 316 317 316 314 313 312 312 312 313 314 315 316 316 317 318 320 321 322 324 326 327
320 318 316 314 313 312 312 311 311 310 309 309 309 309 307 305 302 301 303 303 317 317 315 314 312 312 311 310 310 310 311 311 312 313 314 314 315 316 317 318 319 321 323
317 316 313 312 311 311 310 309 309 308 307 308 307 305 304 301 301 301 301 301 309 316 315 312 309 310 309 308 309 309 309 309 310 311 312 313 312 313 313 314 315 317 318
314 313 312 311 311 312 309 309 307 306 304 302 300 299 299 300 300 299 300 300 301 307 313 312 309 309 308 309 309 309 309 309 309 311 311 311 310 310 310 311 312 313 314
316 313 311 309 310 309 308 307 305 304 300 299 299 297 298 297 296 300 298 299 300 301 304 312 307 307 305 306 307 308 309 308 310 309 309 308 307 307 307 309 310 311 312
315 311 309 309 308 306 303 303 302 301 299 298 300 298 295 295 295 295 294 297 297 297 299 299 300 300 306 304 304 305 307 307 307 307 306 305 306 305 306 307 308 308 310
311 309 308 305 304 303 300 301 299 298 297 297 294 293 294 294 294 293 293 293 295 295 295 295 296 297 296 303 301 302 304 303 303 303 303 303 303 303 304 306 308 308 308
309 308 305 303 302 301 300 299 298 296 296 295 292 291 288 290 292 293 292 292 291 292 294 294 294 294 294 293 294 299 300 300 301 301 301 300 301 301 302 303 306 308 307
307 306 304 302 301 301 299 298 297 295 293 294 294 291 287 284 287 289 290 289 289 289 289 291 293 293 293 292 294 295 300 300 300 299 299 299 299 300 300 301 303 305 307
306 304 303 302 301 300 298 298 299 296 294 292 293 295 291 289 285 283 287 288 289 290 288 289 289 291 291 291 294 297 300 299 295 296 297 299 299 299 299 300 300 303 305
305 301 300 298 296 297 296 296 296 296 294 293 291 291 290 289 287 284 281 283 287 288 288 288 288 288 290 290 289 292 299 298 296 295 296 297 298 298 298 299 300 301 303
299 298 297 296 296 295 295 295 295 295 294 293 295 293 290 288 286 284 282 283 283 285 287 288 287 288 288 288 293 297 298 297 297 294 295 295 296 297 297 297 298 300 301
296 295 296 296 294 295 294 294 295 294 294 293 292 292 292 291 290 289 289 286 282 284 285 286 287 287 290 288 289 294 294 294 294 293 294 294 295 295 295 296 296 298 299
298 297 296 294 294 295 294 294 293 294 294 292 291 291 291 292 292 291 291 287 282 281 283 283 286 286 287 287 289 293 287 292 293 293 292 292 293 293 294 294 295 295 296
298 296 294 294 294 294 294 293 292 292 292 291 291 291 291 292 293 293 291 289 286 280 281 282 281 285 285 285 287 286 285 289 292 292 291 291 291 292 292 293 294 294 295
297 296 296 295 294 293 294 293 292 291 291 290 291 289 289 291 292 292 290 287 286 283 278 281 281 282 283 286 287 285 285 289 289 290 291 291 292 292 291 292 292 293 294
297 295 295 294 293 293 292 291 290 290 290 290 290 289 290 291 289 288 285 283 281 280 277 279 280 281 280 281 283 284 285 285 285 289 290 291 291 291 292 292 292 292 293
296 295 295 293 293 293 292 291 290 290 289 288 288 288 289 289 284 282 280 279 278 278 277 276 277 279 279 280 281 281 284 285 285 288 290 290 291 290 290 291 291 292 292
296 294 294 293 293 293 291 291 290 289 289 288 288 287 286 284 280 279 279 278 278 280 277 276 276 278 278 279 280 281 282 281 285 287 288 289 289 290 290 291 291 291 292
294 293 293 294 294 293 292 292 290 288 287 286 287 286 285 282 280 279 279 277 278 276 276 276 276 276 277 279 279 277 278 281 280 283 285 286 288 288 288 289 290 290 291
294 294 294 294 294 292 291 289 288 286 285 284 285 285 283 284 286 282 279 277 277 276 275 275 275 276 276 277 277 280 277 277 278 280 280 281 282 283 285 287 288 288 290
293 294 292 292 292 291 288 288 286 283 284 283 281 282 282 284 284 285 283 282 280 276 274 272 275 275 276 278 278 276 276 274 273 279 278 278 281 281 282 285 288 288 289
292 291 292 292 291 288 287 287 286 283 282 281 281 281 282 283 281 279 280 280 279 280 279 276 275 276 275 276 276 276 276 275 275 278 278 277 280 278 281 285 287 289 290
291 291 291 291 290 287 287 287 285 281 281 281 281 281 280 278 278 278 277 276 276 277 278 278 276 275 276 277 278 279 278 278 278 279 281 277 279 278 280 282 286 288 289
290 290 291 290 288 285 287 286 283 280 281 281 282 282 281 278 280 280 277 276 275 276 279 281 280 281 282 282 282 281 279 278 276 278 279 278 277 278 278 278 281 288 288
290 290 289 288 288 284 286 285 283 279 280 280 280 280 282 278 280 279 275 274 272 274 276 276 276 277 279 280 282 280 278 276 276 276 279 280 278 277 275 278 280 282 283

GFSMA_sfc_thetae_036.txt.gz
Theta_e
318 318 316 314 313 312 310 309 308 309 309 308 308 306 305 302 300 300 301 313 317 315 315 317 315 313 312 312 311 312 312 312 313 313 314 314 314 314 314 315 316 318 319
317 315 312 311 310 309 309 308 307 307 306 306 304 303 301 300 300 299 299 298 313 317 316 315 312 311 310 310 310 310 310 310 310 312 313 312 312 311 311 312 312 314 315
315 312 310 309 309 309 308 307 306 305 303 302 300 300 300 299 298 297 298 299 301 316 316 311 309 309 308 308 308 308 309 309 309 312 311 310 310 309 309 309 311 311 312
313 311 309 309 309 308 307 306 304 302 300 299 297 296 297 297 296 296 296 297 298 306 311 309 309 308 307 309 308 308 308 308 308 308 308 307 308 307 307 307 308 309 310
313 310 308 308 308 305 304 305 302 301 297 297 298 296 294 294 294 296 294 295 297 300 299 306 304 305 304 304 304 305 306 306 307 306 307 306 306 305 305 306 307 308 309
313 309 308 306 304 301 300 299 298 298 297 296 299 296 294 293 292 292 292 295 293 294 295 294 294 295 305 303 303 303 304 305 304 304 304 303 303 303 304 304 304 306 308
311 307 304 302 301 300 299 299 297 296 295 294 292 292 292 292 292 291 291 291 291 292 292 292 292 293 294 301 301 302 302 303 303 303 302 302 301 301 301 302 302 304 305
307 305 303 301 300 300 299 298 296 295 294 293 291 289 286 289 291 291 289 291 288 290 291 292 291 291 290 291 295 300 301 301 300 301 301 300 300 300 300 301 301 302 303
307 305 302 301 300 300 298 297 295 294 292 292 292 290 286 284 286 288 288 288 287 288 288 289 290 290 290 289 292 294 298 299 299 299 298 299 299 300 300 300 301 301 301
304 303 302 301 300 298 296 297 297 295 292 291 291 294 290 289 284 283 286 287 287 288 287 287 287 288 289 289 292 295 298 299 297 297 296 298 298 299 299 300 300 300 300
301 300 298 296 296 295 295 294 295 293 293 291 290 290 290 288 287 284 282 283 286 287 287 287 287 287 288 288 287 290 298 298 298 295 296 297 297 298 298 299 299 299 299
298 297 296 296 295 295 295 295 294 294 292 292 291 291 290 287 286 284 281 282 282 285 286 288 286 287 287 288 292 295 296 295 293 293 294 295 296 297 297 298 298 299 299
297 296 297 296 296 295 293 293 292 291 292 291 290 290 290 290 289 287 285 286 283 283 284 285 286 286 288 286 287 293 292 293 291 292 292 293 294 295 295 296 296 297 298
297 297 297 296 295 294 293 292 291 292 291 290 289 289 289 290 291 290 290 288 284 281 281 283 284 284 284 285 287 291 286 289 290 290 291 291 291 292 292 293 294 295 296
298 297 296 294 295 294 292 291 291 291 290 289 289 288 288 289 290 291 292 291 287 280 279 280 280 283 283 283 285 285 284 288 289 289 289 290 290 291 291 292 293 293 294
298 296 296 295 294 293 292 291 291 290 290 289 289 288 288 289 291 291 290 288 286 283 277 278 278 280 281 283 284 283 283 287 287 288 289 289 290 290 290 291 291 292 292
297 297 297 294 293 292 292 290 290 289 289 288 288 289 288 290 288 287 284 283 281 280 276 277 278 279 278 278 281 281 283 282 283 287 288 288 289 290 290 290 290 290 291
298 296 295 293 292 291 291 290 289 290 289 288 287 287 287 289 284 282 280 279 278 278 277 275 276 276 277 278 279 279 282 284 282 286 287 287 287 287 289 290 290 290 291
295 294 293 292 292 291 291 290 290 289 289 289 288 286 285 285 281 280 279 278 278 280 277 276 275 276 276 278 278 279 280 280 283 285 284 285 285 286 288 288 288 289 290
293 294 293 292 292 292 292 291 290 289 288 287 286 285 284 283 281 279 279 277 277 276 276 275 276 276 276 278 277 277 278 279 278 281 282 283 285 286 286 286 287 288 289
294 294 292 292 293 293 292 291 289 287 285 285 285 284 283 283 286 282 279 277 276 275 275 275 275 275 275 275 276 277 277 276 277 278 278 279 280 280 282 284 286 287 288
293 292 292 292 292 292 290 290 288 285 285 283 282 282 282 284 285 285 284 282 279 275 274 271 274 273 274 275 276 275 275 274 274 277 277 277 280 279 281 282 285 287 289
291 291 291 291 290 290 289 289 287 283 282 282 281 281 281 282 282 280 281 280 279 279 278 275 273 273 273 274 275 275 275 275 276 278 278 277 278 278 281 283 285 287 288
291 290 289 289 289 289 288 288 286 282 281 281 281 281 280 279 279 278 277 276 276 276 277 277 275 275 275 277 278 279 279 279 279 279 278 276 277 278 280 280 285 287 288
289 288 289 289 288 287 288 287 284 281 280 281 282 282 281 279 280 282 277 276 275 276 278 280 280 281 281 281 281 280 276 276 274 276 278 278 278 278 279 280 280 287 288
288 288 287 287 288 285 287 287 285 281 280 281 281 281 283 280 281 281 276 275 272 274 275 276 276 277 278 278 280 279 277 275 275 274 279 277 278 279 275 276 278 279 280

GFSMA_sfc_thetae_039.txt.gz
Theta_e
316 316 314 312 310 309 308 307 308 307 306 304 303 301 299 299 298 297 297 309 314 315 314 317 314 313 312 311 311 311 311 312 312 313 312 312 311 311 311 311 312 313 314
315 312 310 309 308 308 307 307 305 303 301 301 300 300 298 297 296 296 297 298 312 317 317 314 312 311 310 309 309 310 310 309 312 312 311 310 310 309 309 309 309 310 312
313 310 308 308 307 307 307 305 303 301 299 299 297 298 297 295 295 295 295 297 306 315 314 310 310 310 310 309 309 309 309 309 308 308 308 307 307 307 307 307 308 309 310
312 309 308 308 307 307 305 303 302 299 297 297 295 295 295 294 294 294 294 296 301 302 305 306 305 304 304 305 306 307 308 307 308 308 308 307 306 306 305 306 305 307 308
311 308 307 306 305 303 302 303 300 298 296 295 296 294 293 292 292 294 293 293 295 294 294 301 303 304 304 303 303 304 305 306 306 306 305 305 304 304 303 304 304 304 305
310 308 306 304 301 300 299 298 296 296 296 294 297 294 292 291 291 290 291 293 292 291 291 292 292 294 302 301 300 302 303 304 305 305 304 303 302 302 301 302 302 303 303
309 305 303 301 300 299 298 297 296 295 293 293 291 291 291 291 290 289 290 289 290 290 290 290 290 290 291 299 300 300 301 302 302 302 302 302 302 301 301 301 301 302 302
306 303 301 300 299 298 297 296 296 294 294 293 290 288 286 288 290 290 288 289 287 288 289 290 289 289 288 288 294 298 298 299 300 301 301 301 301 300 300 301 301 301 302
305 303 301 300 298 298 297 296 295 294 292 292 292 291 285 283 285 288 288 287 287 287 287 288 289 289 288 287 290 292 297 297 297 298 299 299 299 300 300 300 301 301 301
304 302 301 300 298 297 295 296 296 293 292 291 291 293 289 288 284 283 285 286 287 288 287 286 287 287 288 287 291 294 296 298 296 297 298 298 299 299 299 300 300 300 301
301 300 298 296 296 296 296 295 293 292 292 290 289 289 288 287 286 284 282 283 285 287 287 286 286 286 287 287 287 289 296 297 296 296 297 297 298 298 298 298 298 299 300
296 296 296 297 296 296 296 293 292 292 292 291 290 290 289 287 286 284 282 281 281 285 286 286 286 286 286 286 290 294 293 292 292 293 294 295 296 297 297 298 298 298 298
295 295 296 297 297 295 294 294 291 291 292 291 290 290 289 289 289 287 285 283 284 287 287 286 287 286 286 284 286 291 291 290 290 291 292 293 293 294 295 295 296 297 297
297 297 297 296 297 295 295 294 293 293 291 290 289 289 289 289 289 289 288 287 285 287 285 286 286 283 283 283 286 289 284 288 288 289 290 291 291 291 292 293 293 294 295
297 297 297 296 296 295 294 293 293 290 290 290 289 289 289 290 291 291 292 291 287 282 281 282 280 281 282 282 282 282 281 286 287 288 288 289 290 290 291 291 292 293 294
298 297 296 296 295 295 294 291 290 290 290 289 290 289 288 289 289 290 289 288 288 284 277 279 278 279 280 282 282 281 281 286 286 287 287 288 288 289 290 290 290 291 292
297 296 296 295 295 293 291 290 290 290 290 289 289 288 288 288 288 287 285 283 281 279 277 278 278 278 277 277 279 279 281 280 281 285 286 287 287 287 287 288 289 290 290
295 297 297 296 294 292 290 289 289 289 288 287 287 287 288 289 286 283 281 280 279 278 277 275 275 276 276 277 277 277 280 282 280 284 285 285 285 285 286 286 287 289 289
297 296 295 293 293 291 290 290 289 288 288 287 287 287 286 285 283 281 280 279 278 279 277 275 275 276 276 276 277 278 278 279 282 284 283 284 284 285 286 286 287 288 287
295 294 294 294 293 292 292 292 290 288 287 287 287 285 284 283 282 280 279 278 277 276 276 275 275 275 275 277 276 276 276 278 278 280 281 282 283 285 285 286 286 287 287
294 294 293 293 292 293 292 291 289 287 286 285 285 284 283 283 285 282 279 277 276 275 275 274 274 274 274 274 274 275 275 276 276 278 278 278 280 280 281 283 284 286 286
293 293 293 293 292 292 291 291 289 285 285 284 282 282 282 285 285 287 285 283 279 275 274 271 272 272 273 274 274 273 274 274 273 277 277 277 280 279 280 281 284 285 286
292 292 292 290 289 289 290 290 289 284 283 282 281 281 281 282 283 281 284 283 281 281 278 274 272 273 272 274 274 274 275 276 276 278 277 277 278 277 281 282 285 286 287
291 289 288 288 287 287 289 289 288 282 281 282 280 281 280 280 280 279 278 277 277 277 277 276 275 275 275 276 276 277 278 278 277 278 277 274 277 277 280 281 284 286 287
288 287 287 286 285 285 288 288 286 281 280 280 282 282 281 280 282 283 278 277 276 277 279 280 280 281 281 281 280 275 274 274 272 274 277 276 276 277 279 279 281 284 287
287 286 285 285 286 284 287 288 286 279 279 280 280 281 284 281 282 283 277 275 273 275 275 275 276 277 278 278 279 277 275 273 273 272 277 274 276 278 276 276 277 279 279

GFSMA_sfc_thetae_042.txt.gz
Theta_e
317 316 313 310 308 308 307 307 306 304 302 301 300 299 298 297 297 297 298 309 315 315 314 317 315 313 312 311 311 311 311 311 313 312 311 310 310 310 309 309 310 310 311
315 311 309 307 307 307 306 305 303 301 299 299 299 298 296 295 296 296 298 303 318 319 317 314 312 311 311 310 308 309 309 310 310 310 310 309 308 307 307 307 308 308 309
312 309 307 306 306 306 305 303 301 299 298 298 297 296 295 295 295 296 298 303 305 312 312 311 311 310 310 311 310 309 309 308 308 308 308 308 307 306 305 306 306 306 306
310 308 307 306 306 305 304 302 299 297 297 296 295 294 294 294 294 294 296 298 298 297 301 306 306 306 304 305 305 305 306 306 306 306 306 306 306 305 304 304 304 304 305
310 308 307 306 305 304 302 301 298 297 295 295 295 293 293 292 292 294 293 294 295 294 294 301 303 305 303 303 303 303 304 305 305 306 305 305 304 303 302 302 302 303 303
309 308 306 304 302 300 298 297 296 296 295 295 296 293 292 291 291 291 292 293 292 292 293 294 294 296 302 302 302 303 303 304 304 304 304 304 303 303 302 301 301 302 302
308 306 303 301 300 298 297 297 296 295 293 293 292 292 291 291 291 290 291 290 291 291 292 291 291 291 291 298 299 300 301 301 302 302 302 303 303 302 302 302 302 302 302
307 304 301 299 299 297 297 296 295 294 293 292 290 288 286 289 291 291 289 290 289 290 291 292 291 291 291 290 294 297 298 298 299 300 300 300 301 301 301 301 301 301 301
304 302 300 299 298 297 296 295 294 293 291 292 292 290 286 284 286 289 289 289 289 289 289 289 290 291 291 290 291 293 296 297 297 298 299 299 300 300 300 301 301 301 301
303 301 300 298 297 296 295 295 295 294 292 291 291 293 290 289 286 285 287 288 288 289 288 289 289 289 289 289 291 293 294 297 297 297 298 298 299 300 300 300 300 300 300
301 300 299 296 295 294 294 294 293 294 292 291 290 290 289 288 287 285 283 285 287 289 289 288 288 288 289 289 289 291 295 294 294 295 296 297 297 298 298 299 299 299 300
297 297 296 295 294 294 295 294 295 294 292 292 291 290 290 288 287 286 283 283 283 285 288 289 288 289 288 287 290 292 292 291 292 293 294 295 296 297 297 298 298 299 299
294 294 295 294 294 295 296 295 294 293 291 291 290 290 290 290 291 288 286 285 283 286 288 290 288 287 287 286 286 289 290 288 289 290 291 292 293 294 295 295 296 296 297
295 295 296 297 296 297 296 294 293 294 292 290 289 289 290 290 290 289 288 287 285 286 286 286 287 285 285 285 285 287 284 286 287 288 289 290 290 291 292 292 293 294 295
297 297 297 297 298 296 295 294 294 293 292 290 289 288 288 288 290 290 290 292 286 282 281 284 283 283 283 283 283 284 282 284 286 287 287 288 289 290 290 291 292 293 294
298 296 297 298 296 295 295 293 292 291 289 290 289 288 288 288 289 289 288 288 288 285 280 282 281 281 282 282 283 283 281 285 285 286 286 287 287 288 289 289 290 290 291
296 295 296 296 295 294 293 292 291 290 290 289 289 287 287 288 287 287 287 285 284 283 280 280 280 280 279 279 280 280 281 281 282 285 285 286 286 286 287 287 287 288 289
296 296 296 295 295 293 293 291 289 291 289 287 287 287 287 289 286 286 284 282 280 280 278 276 277 278 278 279 279 278 280 282 282 284 285 285 285 285 286 286 286 287 287
296 296 296 295 295 295 291 290 291 289 288 288 287 286 286 286 283 282 281 280 279 280 278 277 276 278 278 278 278 279 279 280 281 283 283 283 284 285 285 286 286 287 287
295 295 295 295 294 292 292 292 290 289 287 287 286 286 286 284 283 282 281 279 279 277 277 276 276 276 276 277 277 276 276 278 278 280 281 282 283 284 285 285 285 286 287
294 294 294 295 295 293 292 292 291 288 286 285 286 285 284 284 286 283 280 279 277 276 276 276 275 275 275 274 274 276 275 276 277 279 279 280 281 282 282 283 284 285 286
295 295 295 294 293 294 292 291 290 286 286 285 284 283 283 286 286 288 287 284 280 277 276 274 274 273 273 274 275 274 274 274 273 280 279 278 281 280 282 283 284 285 286
294 294 293 293 291 289 289 290 290 286 284 283 282 282 282 283 284 282 285 286 284 282 278 276 274 274 273 275 275 275 275 276 276 279 278 276 280 278 281 282 284 285 286
293 292 290 288 287 287 288 289 288 285 283 282 282 281 281 281 282 281 280 279 279 278 279 278 276 275 276 277 277 277 277 277 277 278 279 274 279 278 281 281 284 285 286
290 289 287 286 285 285 287 288 287 283 281 281 281 281 281 282 283 284 279 278 277 278 280 282 281 280 281 281 281 277 275 274 272 274 277 276 278 277 279 281 283 285 286
287 286 285 285 285 284 286 288 287 281 280 281 280 282 285 282 283 284 280 277 275 277 277 276 276 278 279 278 280 278 276 273 273 272 278 275 276 277 276 281 281 284 284

GFSMA_sfc_thetae_045.txt.gz
Theta_e
325 324 321 320 318 318 317 314 313 312 311 309 308 307 306 306 307 308 311 316 315 315 318 319 316 314 312 311 310 310 311 312 310 311 310 309 308 308 308 308 308 308 309
327 323 319 316 316 317 316 313 312 311 309 308 306 306 305 305 306 309 314 315 317 319 318 315 314 312 311 310 308 310 310 310 309 309 309 309 308 307 306 306 306 307 307
324 321 317 316 316 315 314 312 310 310 308 306 305 304 304 305 306 310 312 313 312 311 312 312 312 311 310 310 308 307 308 308 308 307 308 307 307 306 305 305 304 305 305
320 318 316 316 315 314 313 309 310 307 306 307 305 304 304 304 305 308 310 309 306 307 307 306 306 305 304 304 305 305 306 306 306 307 307 306 305 305 304 303 303 303 304
318 318 316 316 316 313 311 310 308 308 306 305 304 304 304 303 303 302 303 304 303 304 304 303 303 304 303 302 302 303 304 305 305 306 305 305 305 304 304 303 302 302 302
318 318 316 315 312 309 309 308 307 307 306 306 302 303 304 302 302 302 301 301 302 302 303 303 303 302 301 301 301 302 302 303 304 304 304 303 304 304 304 303 303 303 303
318 317 314 312 311 310 308 308 307 306 305 306 304 302 303 300 301 301 301 301 301 300 301 301 300 300 300 297 298 299 301 301 301 302 302 302 302 302 302 302 302 302 303
316 314 312 310 310 308 308 307 307 305 305 305 301 299 296 297 299 301 300 300 300 300 299 299 299 299 299 299 297 298 299 300 300 301 301 301 301 301 302 302 302 302 303
313 311 311 310 309 308 307 307 306 304 301 303 302 299 294 293 297 300 299 299 300 299 300 300 299 298 297 298 297 296 296 297 299 300 300 300 300 301 301 301 302 302 302
311 308 309 309 308 308 306 306 304 304 302 299 301 300 301 300 294 293 298 299 300 299 300 300 298 298 297 297 295 293 295 295 295 297 298 298 299 299 300 300 300 301 301
310 307 308 308 307 306 305 304 303 302 299 297 299 300 300 299 299 295 291 294 296 297 298 298 299 298 296 295 295 295 293 293 293 294 296 297 297 298 298 299 299 300 300
309 307 307 307 306 304 303 302 303 301 299 300 300 300 299 296 295 294 292 292 292 294 296 297 298 297 296 295 291 290 290 290 290 291 292 294 295 296 297 297 298 299 299
307 306 306 304 302 302 301 301 298 298 299 298 299 299 300 299 298 296 293 291 290 292 294 296 297 296 294 296 291 289 289 288 288 289 290 291 292 293 294 294 295 296 297
308 306 303 302 301 300 300 299 298 298 300 300 300 300 299 299 298 296 294 291 289 289 291 292 296 295 294 293 289 288 289 287 286 287 288 289 290 290 291 292 293 294 295
304 304 302 302 303 300 300 298 298 299 300 300 300 300 298 298 298 297 296 295 291 285 286 290 290 294 293 291 289 289 289 287 286 287 287 287 289 289 290 290 291 291 292
304 302 302 302 301 301 299 297 299 299 299 298 298 298 297 297 297 297 296 295 294 289 286 290 290 291 290 288 288 288 287 285 285 285 286 286 287 288 288 289 289 290 290
303 301 301 301 300 297 297 296 296 298 297 298 297 297 296 297 296 295 295 295 293 291 287 289 289 289 288 287 287 287 286 285 286 285 285 285 286 286 286 286 287 287 288
302 301 300 299 297 297 297 296 296 294 296 296 296 296 295 295 295 295 294 293 292 292 288 286 288 286 286 287 286 285 284 284 285 285 284 285 285 285 285 286 286 287 288
301 299 298 296 296 297 298 296 297 297 296 296 296 295 295 295 294 294 293 292 291 289 288 285 285 286 285 286 284 284 283 284 284 284 284 284 284 285 285 286 286 287 287
299 299 298 298 297 295 297 297 296 295 295 295 295 295 295 294 294 294 292 291 289 288 287 285 284 284 284 285 283 281 281 283 282 283 284 284 284 285 285 285 285 286 287
296 297 296 297 297 296 295 295 296 296 297 295 295 294 294 294 293 292 290 290 288 286 285 284 283 283 282 282 280 281 280 281 282 284 283 284 284 285 286 285 286 286 286
297 298 296 295 295 295 293 293 293 296 294 293 293 294 293 290 290 288 288 287 287 286 285 284 283 282 282 282 281 280 280 279 277 284 282 282 284 283 285 287 285 285 285
297 296 296 296 294 295 292 291 290 293 293 293 293 293 292 289 288 289 287 287 286 284 283 286 283 283 282 282 280 280 280 279 279 282 281 280 283 282 285 285 285 285 286
295 295 295 295 296 294 289 289 288 292 292 292 292 292 292 291 288 287 287 287 287 287 286 284 284 284 284 282 281 281 281 281 281 282 282 277 282 282 284 285 285 286 286
295 296 295 294 293 292 288 288 289 292 291 290 291 291 290 289 287 286 287 285 285 285 285 283 283 283 281 281 282 282 280 279 277 279 282 280 281 280 282 284 287 285 285
293 293 291 292 290 291 289 288 288 291 289 290 291 290 286 287 286 286 287 285 283 284 284 283 283 283 282 283 281 282 281 278 278 277 281 278 278 279 277 283 285 285 287

GFSMA_sfc_thetae_048.txt.gz
Theta_e
328 328 329 327 326 326 324 322 320 318 318 316 315 313 311 311 310 311 314 319 316 316 321 319 316 314 312 311 310 309 311 310 310 310 309 309 308 308 307 307 307 307 308
329 328 328 327 325 325 323 321 320 318 317 315 313 311 310 309 310 312 314 316 316 318 318 315 314 312 312 310 309 311 310 309 309 309 308 308 308 307 306 305 305 305 306
332 330 328 325 325 324 323 321 319 318 316 313 310 310 310 311 311 312 315 315 314 312 312 313 313 311 310 310 308 308 308 308 308 308 308 308 308 306 305 304 303 303 304
334 331 327 325 324 322 321 319 317 316 315 313 311 311 311 310 310 311 313 313 314 313 308 307 306 306 305 305 306 307 307 307 307 307 307 307 307 307 306 304 304 304 304
331 329 326 324 324 321 320 317 317 316 312 310 309 311 311 310 309 307 309 310 310 310 307 304 303 303 302 302 303 304 305 306 306 306 306 305 305 305 305 305 305 304 304
328 327 325 323 323 321 318 316 315 313 312 312 306 308 310 308 308 307 306 305 307 306 305 305 305 304 300 300 301 302 303 304 305 304 304 304 304 304 304 304 304 304 304
326 326 324 323 322 318 318 317 314 311 309 311 309 309 309 307 305 305 305 305 305 305 304 304 304 303 304 299 299 299 301 303 304 303 303 303 302 303 303 303 303 303 303
327 326 325 321 320 319 317 315 313 310 311 311 308 306 303 303 304 305 305 304 305 305 302 303 304 304 303 302 301 297 299 300 301 302 302 302 302 302 302 303 303 303 303
323 324 321 317 318 318 315 315 313 311 308 308 306 305 301 301 303 305 305 304 304 303 303 303 304 303 302 302 301 300 296 296 298 300 301 301 301 301 301 302 302 302 302
323 321 319 316 317 317 315 314 312 310 308 307 306 305 305 303 299 298 303 303 304 303 303 303 302 302 302 301 299 295 295 295 295 296 298 299 299 300 300 300 301 301 301
322 319 317 315 315 314 315 313 310 309 309 308 303 304 303 304 303 298 295 298 301 301 301 300 301 301 301 301 300 297 292 292 292 293 294 296 297 298 298 299 299 300 300
319 317 315 316 314 314 314 311 310 310 306 302 301 303 303 300 299 298 296 297 296 298 299 300 300 301 301 300 295 290 291 290 290 290 291 292 293 295 296 296 297 298 298
312 313 314 315 314 314 311 310 307 306 304 303 304 303 302 301 301 299 297 295 294 296 297 299 300 300 298 299 298 289 292 291 289 289 290 290 291 292 293 294 295 296 296
313 314 313 313 313 310 307 303 303 306 304 304 302 302 302 302 302 300 297 295 293 294 295 295 298 298 298 297 295 289 293 292 289 288 288 289 289 290 291 292 293 293 294
313 314 312 310 306 307 305 302 303 300 300 303 303 302 302 302 301 300 299 298 295 291 291 294 293 297 297 297 295 294 293 292 289 288 287 287 288 289 290 290 291 291 292
314 312 308 307 306 303 302 302 299 300 300 301 300 301 302 301 300 300 299 298 297 294 290 294 294 296 296 294 294 292 292 290 289 289 287 287 287 288 288 288 289 289 290
315 308 309 308 304 301 300 297 298 299 298 298 299 300 300 301 299 299 299 298 296 295 291 293 294 295 294 293 292 293 292 291 289 289 287 286 286 286 287 287 287 287 288
309 308 305 301 302 298 298 297 297 296 297 297 299 299 299 298 299 299 298 296 295 296 293 290 293 292 293 293 292 290 289 288 289 289 287 286 285 285 285 286 286 287 287
305 302 301 302 299 298 296 297 298 298 297 299 299 298 298 298 298 298 297 296 296 295 293 291 290 292 292 292 290 290 289 288 288 288 288 287 286 286 286 286 286 286 287
302 301 300 298 297 297 298 298 298 298 298 298 298 298 298 298 297 297 296 295 294 293 292 291 290 289 290 291 289 287 286 287 286 287 288 287 286 286 286 287 286 286 286
301 300 299 296 298 298 298 298 297 296 296 297 299 299 299 298 296 296 296 296 294 292 291 290 288 288 288 288 286 287 284 285 286 287 287 287 288 288 288 288 288 287 287
300 298 299 299 298 298 293 292 294 296 297 298 296 297 297 296 295 291 291 290 292 293 291 289 287 286 287 287 287 286 284 282 281 288 286 285 287 286 287 288 288 286 286
300 299 298 298 297 297 293 293 291 297 296 296 296 296 295 295 294 296 290 288 287 287 284 289 287 288 287 288 287 285 283 283 283 285 284 282 286 285 287 287 288 287 286
298 297 296 297 298 297 292 290 289 294 296 296 296 295 295 295 295 295 294 293 292 292 290 289 289 289 289 289 287 285 284 284 285 286 286 281 285 284 287 287 287 287 286
295 297 298 298 298 298 290 289 289 295 294 295 295 295 295 294 292 290 291 290 291 291 290 288 287 286 284 283 283 284 282 282 281 283 285 283 283 283 284 285 288 287 286
298 297 296 296 293 295 292 290 290 293 292 293 294 294 290 291 289 287 290 289 288 289 289 289 287 285 284 286 283 284 284 281 281 281 285 282 282 282 280 284 286 287 287

GFSMA_sfc_thetae_051.txt.gz
Theta_e
332 330 330 328 328 328 327 326 324 322 321 319 317 315 312 312 312 312 317 320 315 315 323 320 318 316 313 311 310 310 311 311 310 310 310 309 310 309 308 307 306 306 307
333 328 329 327 327 328 327 325 323 322 321 318 315 312 311 311 312 313 314 315 318 319 321 318 316 314 313 311 310 310 310 310 310 310 310 310 309 309 308 306 305 305 305
332 331 330 329 328 328 327 326 323 322 319 316 313 312 311 311 311 312 313 315 315 314 315 314 314 312 311 310 309 309 308 309 308 308 309 308 308 308 308 307 306 305 305
332 331 329 328 329 328 325 323 322 320 318 315 313 311 311 311 310 311 313 312 312 313 312 311 309 306 305 304 306 307 307 307 307 307 307 307 307 307 307 307 306 306 305
335 335 330 329 329 326 324 323 321 321 316 313 312 311 312 311 309 308 310 310 310 308 308 309 307 304 302 301 302 304 305 306 306 307 306 306 305 305 305 305 306 306 306
334 333 330 329 328 325 323 322 321 319 316 314 309 309 312 311 310 309 308 307 307 307 307 306 305 305 305 303 301 302 303 304 305 305 305 304 304 304 304 304 305 305 305
333 331 329 328 327 325 324 322 320 316 313 313 311 311 311 311 309 308 308 307 307 306 307 305 305 304 304 303 303 301 300 303 304 305 304 304 304 303 303 303 304 304 305
331 330 329 327 326 324 322 321 319 314 314 314 310 310 306 308 307 307 308 307 307 307 306 304 304 305 305 304 303 301 300 299 300 301 302 303 303 303 303 303 303 304 304
331 329 329 327 326 324 321 320 318 316 312 312 312 309 305 303 306 308 307 307 307 306 306 305 305 305 304 303 303 303 297 297 298 299 300 300 301 302 302 302 302 303 303
328 327 327 326 324 323 320 319 318 317 314 310 311 310 310 307 301 301 306 306 306 305 306 305 304 303 303 303 304 298 297 295 294 296 297 298 299 299 300 300 301 301 302
328 327 326 325 322 320 321 319 319 316 313 311 310 308 305 305 306 302 298 301 303 304 304 303 302 302 302 303 302 297 294 292 292 293 295 296 297 297 297 297 298 299 299
328 326 323 323 321 320 318 318 318 315 313 310 304 304 305 304 303 302 299 300 300 301 302 302 301 302 302 301 298 295 292 290 291 292 293 293 294 294 295 296 297 297 298
325 324 322 319 316 316 316 318 316 312 307 305 304 305 306 304 303 301 299 298 297 299 299 301 301 301 300 300 299 294 294 293 293 291 291 291 292 292 293 294 295 296 296
327 323 317 315 315 315 315 311 305 307 307 305 303 301 301 302 302 302 299 297 294 295 297 298 299 299 300 299 297 293 295 295 293 291 290 290 290 291 291 292 292 293 294
320 316 314 315 315 315 308 305 305 304 300 304 301 302 301 301 303 303 301 299 296 292 292 296 296 299 298 298 298 297 296 295 294 291 291 289 289 289 290 290 291 291 292
319 316 316 315 313 306 307 306 301 301 299 300 300 299 299 301 303 302 300 300 298 295 292 295 295 297 298 296 297 296 295 295 293 292 292 290 288 288 289 289 289 290 290
320 317 316 313 307 308 305 300 300 299 298 299 298 298 299 302 301 301 301 300 298 297 293 295 297 298 297 297 296 296 295 294 293 293 292 290 289 288 287 287 287 288 288
315 312 308 307 304 300 300 297 298 298 297 297 298 298 299 301 301 301 300 299 298 298 294 293 295 295 295 296 296 295 292 292 292 291 292 290 289 288 287 287 287 287 287
308 307 304 303 300 299 298 298 298 297 297 297 297 298 300 299 298 299 299 298 298 296 297 295 294 295 295 295 293 294 293 292 291 292 291 290 289 289 287 287 287 287 287
303 302 303 300 298 297 297 298 297 297 298 298 298 298 298 298 298 298 298 299 298 296 296 294 293 293 294 294 293 290 290 291 289 289 290 289 290 290 290 290 289 288 288
303 301 299 299 298 298 298 298 298 298 296 296 297 298 299 299 297 296 297 298 298 296 295 293 291 292 291 291 289 290 289 288 289 289 288 288 289 289 289 290 290 291 288
305 303 302 301 300 300 293 293 295 296 296 296 297 298 300 296 296 292 293 292 293 295 294 293 292 290 291 290 291 289 287 286 283 289 287 287 288 287 288 289 289 287 287
304 302 301 300 301 300 293 293 292 297 297 297 297 297 296 296 294 296 293 290 290 289 286 291 290 291 290 291 290 288 287 286 284 286 286 284 288 286 288 288 289 288 288
302 302 300 298 299 299 293 293 290 295 295 296 296 296 296 296 297 295 295 295 296 295 293 291 291 291 291 293 291 289 287 286 285 287 287 283 287 285 288 288 288 289 288
297 300 300 299 298 299 293 290 290 295 294 294 295 295 295 296 293 292 294 293 293 293 293 291 291 290 286 284 284 287 284 283 282 282 287 285 285 284 285 286 288 287 287
299 299 297 297 292 295 291 290 291 292 291 292 293 294 291 292 290 289 292 292 290 291 292 292 292 290 287 287 284 285 285 282 282 282 286 284 283 283 280 285 286 287 288

GFSMA_sfc_thetae_054.txt.gz
Theta_e
326 325 324 323 322 323 320 322 320 318 317 315 313 310 309 307 308 311 310 317 317 317 323 321 318 316 314 312 311 312 311 311 310 310 310 310 310 310 309 308 307 306 307
328 327 328 326 325 325 324 323 320 318 316 314 310 308 307 307 307 308 310 314 319 322 323 321 319 317 315 312 310 310 309 309 309 309 310 309 309 309 308 308 307 306 306
328 327 326 326 325 325 324 322 319 319 315 315 310 308 307 306 307 307 310 310 313 317 318 317 316 314 312 311 309 308 308 308 308 308 308 308 308 308 308 307 307 307 307
328 327 326 326 327 326 322 320 318 316 315 312 308 306 305 306 305 306 308 308 310 310 315 316 313 310 308 305 305 306 307 307 307 307 307 307 307 307 306 306 306 306 307
329 328 328 327 327 324 321 320 318 317 314 310 308 307 306 305 305 306 307 306 305 305 308 314 313 310 307 305 303 303 304 305 306 306 307 307 306 305 305 305 305 305 305
331 329 328 327 324 322 321 319 317 317 314 310 309 306 307 306 305 303 303 305 304 302 301 303 302 302 308 305 304 303 303 304 305 306 306 306 305 305 305 304 304 305 305
330 329 328 326 324 322 320 320 317 314 310 308 306 305 307 306 305 303 304 303 303 302 302 301 300 299 301 306 305 303 302 302 303 304 305 305 304 304 304 304 304 305 305
330 329 326 324 323 321 321 318 316 311 310 310 305 305 300 302 303 304 303 303 302 302 303 302 300 300 299 300 300 303 302 301 300 301 302 302 302 303 303 303 303 303 303
328 328 327 325 323 322 318 318 316 312 308 310 307 304 300 298 299 302 303 302 302 300 301 301 301 301 301 299 301 301 300 299 298 298 299 300 301 301 301 302 302 302 303
328 328 326 325 324 321 318 317 316 314 313 307 308 307 305 301 296 297 300 301 302 302 300 300 300 299 299 298 303 300 299 297 296 295 297 298 299 300 300 300 300 300 300
328 326 325 323 321 320 318 316 314 314 312 309 307 305 301 301 302 299 293 298 299 300 300 302 297 297 298 298 296 297 297 295 293 293 295 295 297 297 297 297 298 298 299
325 325 324 323 321 318 318 317 316 313 311 308 304 302 302 301 300 300 296 295 296 298 299 298 296 296 298 297 299 298 296 294 293 293 294 294 295 295 295 296 296 297 297
324 324 323 320 319 318 316 315 313 310 308 303 302 303 303 300 300 299 297 295 294 296 297 297 297 296 298 296 295 295 295 294 294 294 294 293 293 294 294 294 295 295 296
324 324 322 321 317 315 314 312 308 304 304 304 303 299 300 300 300 301 298 295 292 293 292 294 297 295 295 295 295 298 293 295 295 295 293 292 292 293 291 292 293 293 294
324 320 320 315 314 313 312 307 305 305 303 302 301 299 299 299 301 301 300 298 292 285 287 291 292 296 295 294 294 292 291 297 295 294 292 293 293 292 291 291 291 291 292
318 316 315 315 313 312 306 305 303 300 300 299 299 298 298 299 300 301 300 297 295 292 286 292 292 292 293 294 295 292 291 296 295 294 294 294 294 291 290 290 290 290 290
319 317 315 314 311 306 305 301 299 298 297 298 297 297 297 298 298 299 299 296 293 292 289 290 291 291 291 291 292 292 292 290 290 294 294 293 293 291 290 289 289 289 289
317 316 312 307 305 303 300 298 298 298 297 296 297 297 297 299 298 299 297 295 294 293 291 289 290 289 290 291 291 289 291 292 288 293 293 293 292 291 290 290 289 289 288
307 306 304 303 300 300 298 298 297 297 296 296 297 297 297 297 297 297 296 295 294 295 293 289 289 290 290 289 288 289 288 288 291 294 293 292 292 292 291 290 290 290 289
303 302 302 300 299 298 298 298 297 296 296 297 297 297 297 297 296 296 296 296 295 293 293 291 290 289 288 288 287 285 284 286 285 290 290 289 290 291 292 291 290 290 291
302 300 299 298 298 297 298 297 297 296 296 297 297 298 298 297 297 296 297 295 291 289 289 288 288 287 286 285 284 285 285 284 284 285 282 283 283 284 284 288 290 290 290
300 300 299 298 297 299 294 294 296 296 296 295 295 296 297 296 296 294 294 293 291 289 288 287 288 288 286 287 285 284 283 281 279 284 281 280 282 281 283 284 289 289 288
301 301 299 299 298 297 293 293 292 295 295 294 294 294 294 295 292 293 292 290 289 290 287 289 287 287 287 287 285 283 283 282 282 282 280 278 280 280 283 287 289 289 289
300 300 299 297 297 298 293 293 291 292 291 291 291 292 291 291 292 291 289 288 289 290 290 289 287 288 288 287 285 286 284 283 281 280 282 277 280 280 281 282 288 289 289
297 298 299 297 296 296 293 291 289 290 290 289 291 291 290 289 290 290 287 286 287 288 292 291 291 291 290 290 287 283 280 279 275 278 280 279 279 278 280 279 281 288 288
299 298 296 295 291 291 289 288 289 286 284 283 285 286 287 287 287 286 284 283 283 285 287 288 288 287 288 285 285 284 282 281 280 277 280 279 279 278 275 279 280 280 281

GFSMA_sfc_thetae_057.txt.gz
Theta_e
320 320 320 318 318 318 314 316 316 315 312 311 309 306 305 304 305 306 306 318 319 324 322 321 319 316 315 313 312 313 311 311 311 311 311 310 310 310 309 309 308 307 307
321 321 321 318 318 319 317 319 315 314 312 309 306 305 304 304 307 307 309 312 318 320 324 321 320 317 315 312 312 310 309 309 309 309 309 309 309 309 309 308 308 308 308
324 323 324 322 321 321 319 317 316 314 312 310 306 304 304 304 304 306 308 310 314 320 322 323 319 316 314 313 312 309 307 307 307 307 307 307 308 307 307 307 307 307 307
325 323 322 322 321 322 319 316 315 312 311 307 303 303 303 303 303 304 307 308 309 311 317 319 317 314 312 310 309 307 306 306 306 306 307 307 306 306 306 306 306 306 306
327 322 323 322 323 320 318 316 314 313 311 308 304 303 302 302 301 304 304 306 307 307 307 316 315 314 312 310 308 306 303 304 304 305 306 306 306 305 305 305 305 305 305
326 325 324 324 322 319 317 315 313 314 312 307 308 305 302 302 301 300 302 304 301 305 305 306 306 304 311 308 306 305 305 305 303 304 305 306 306 306 305 305 304 305 305
327 326 325 323 321 318 317 315 313 312 309 307 303 301 302 302 301 300 300 300 301 299 299 300 299 297 301 309 306 306 306 305 303 303 303 303 303 303 303 304 304 304 304
327 326 324 322 320 318 317 315 313 309 308 305 301 302 300 300 301 301 300 301 300 299 299 300 298 298 297 297 299 307 307 305 302 301 301 301 301 302 302 302 302 303 303
326 326 324 322 320 319 317 314 312 309 306 306 304 303 298 296 297 299 300 303 301 298 298 299 299 298 297 297 302 305 306 303 302 300 299 299 300 301 301 301 301 301 301
325 326 325 322 320 320 316 315 314 310 307 306 304 307 305 301 296 296 299 300 301 299 297 297 298 299 297 296 300 300 302 301 300 299 298 297 298 299 299 299 299 299 299
325 325 324 322 320 319 316 314 312 310 312 308 305 304 302 301 301 298 294 298 300 300 299 299 297 296 296 295 296 299 301 299 299 299 297 296 296 296 297 298 298 298 298
324 324 322 320 319 316 315 315 315 313 313 309 306 305 302 300 300 300 297 296 296 298 298 297 296 295 297 296 298 300 299 298 298 297 297 296 296 296 296 297 296 296 297
320 322 323 318 316 317 317 316 314 312 310 304 302 303 303 301 301 299 297 296 294 296 296 297 297 295 297 294 296 299 299 297 297 297 296 296 296 296 295 295 294 295 295
323 323 322 320 318 317 315 313 312 308 305 304 304 301 300 300 301 301 299 296 293 294 293 294 297 296 294 293 295 300 295 296 296 297 296 296 295 295 294 293 293 293 293
321 320 320 319 317 316 314 310 307 304 304 302 300 300 299 300 300 300 301 299 295 290 286 290 291 294 293 293 294 294 291 296 296 296 296 296 295 295 294 293 292 292 292
315 315 315 315 314 312 308 306 304 303 302 300 299 299 299 299 299 300 300 300 298 294 289 289 290 291 291 293 293 292 290 295 296 295 294 295 295 295 294 293 292 291 291
316 316 315 313 311 307 305 303 301 300 299 298 298 298 298 299 298 298 299 298 297 293 291 288 290 290 288 289 291 291 291 291 291 295 294 294 294 294 294 293 292 291 291
317 315 313 311 306 304 302 300 299 298 298 297 297 297 297 299 298 298 298 297 296 295 291 288 288 289 289 290 289 288 291 292 289 293 295 294 294 293 292 292 291 291 290
309 308 306 304 302 301 299 299 298 298 297 297 297 296 297 297 296 296 296 295 295 296 293 290 291 288 290 288 288 287 287 287 289 293 294 293 293 293 293 292 291 291 291
304 303 303 301 300 299 298 298 297 296 296 296 297 297 297 297 296 296 296 295 295 294 294 292 292 292 288 291 289 289 287 286 287 289 291 289 290 291 293 293 292 292 292
302 301 299 299 298 298 298 297 297 296 296 296 296 297 297 297 296 295 296 292 291 290 287 286 287 285 283 284 284 287 285 284 284 284 282 282 284 282 283 288 289 291 292
300 299 298 297 296 297 293 294 295 296 296 296 294 295 293 295 294 293 293 293 293 291 288 286 287 286 286 283 284 283 282 283 282 284 283 280 281 280 282 281 287 289 290
297 295 295 295 294 294 293 293 293 296 294 292 290 291 292 294 290 288 288 288 288 289 286 288 286 286 286 286 284 282 282 282 283 283 280 278 278 278 281 285 289 290 289
295 295 297 298 297 296 292 292 290 290 289 288 288 287 286 285 287 286 284 283 284 286 287 288 287 288 288 288 287 288 287 286 283 282 281 276 278 278 279 281 287 289 288
297 297 297 294 293 294 291 291 289 286 286 284 285 285 285 284 285 285 281 279 278 279 283 286 287 288 288 288 289 288 283 280 279 278 280 279 278 278 278 278 280 287 287
297 296 294 291 289 286 287 288 285 281 279 279 281 282 283 283 284 283 280 278 278 278 279 280 281 283 285 285 287 287 287 282 281 276 279 280 279 276 274 278 279 279 279

GFSMA_sfc_thetae_060.txt.gz
Theta_e
320 320 319 317 315 315 313 313 315 312 310 309 307 304 303 302 301 303 307 322 324 324 322 321 320 318 315 313 313 313 312 311 310 310 310 310 310 309 309 309 309 309 309
319 318 317 316 314 316 313 315 314 311 310 306 304 304 303 304 305 303 305 311 321 325 324 322 320 318 315 313 314 311 310 309 308 308 308 308 308 308 308 308 307 307 307
318 318 318 315 315 316 314 316 314 312 310 308 304 303 303 304 306 304 307 308 313 320 323 324 321 319 317 315 314 311 308 307 306 306 306 307 307 307 306 306 306 306 306
320 321 321 320 319 318 317 316 314 312 310 306 303 302 301 302 303 305 306 308 310 313 319 322 322 319 316 315 313 310 308 306 304 305 305 306 306 305 305 305 305 305 305
324 322 321 321 320 320 317 316 313 311 309 305 303 301 301 301 301 305 305 306 308 309 310 318 318 317 315 312 310 310 306 304 304 304 305 306 306 306 306 305 305 305 305
324 322 322 321 321 319 316 314 312 312 311 309 308 304 300 300 300 299 303 307 306 307 306 308 309 308 314 312 309 308 306 306 304 304 304 304 305 305 305 304 304 305 305
324 322 321 322 320 319 316 314 312 311 310 306 302 300 300 301 299 299 300 301 300 303 304 304 303 300 302 313 309 308 309 308 306 304 303 302 302 302 302 303 303 303 303
324 323 322 321 319 317 314 313 312 309 309 305 302 301 300 303 301 300 298 299 298 298 302 301 299 298 297 301 301 309 309 309 307 304 303 301 300 300 301 302 302 302 302
323 323 323 322 319 318 316 313 312 309 308 305 303 302 296 296 297 298 298 298 298 297 297 299 299 297 297 296 301 305 310 309 306 305 303 301 300 299 299 300 301 300 300
323 324 323 322 320 319 317 316 314 311 310 308 306 305 303 302 296 297 301 301 302 300 298 299 299 297 296 296 300 302 306 304 305 304 304 302 300 299 298 298 299 299 299
323 324 323 322 320 319 318 316 313 313 312 311 308 304 303 301 301 298 296 300 301 301 301 300 299 297 297 295 295 299 303 302 303 303 303 302 301 299 298 298 298 299 299
320 323 324 323 321 320 318 316 316 313 311 311 309 307 304 301 298 300 298 298 295 300 300 300 299 297 296 294 299 301 302 300 301 302 303 301 300 299 299 298 298 298 297
319 321 322 321 320 320 319 318 316 312 311 309 309 306 305 304 303 301 298 296 295 296 297 298 298 297 297 297 298 301 302 299 299 301 301 300 300 299 299 298 297 297 296
320 322 321 321 319 319 318 316 313 312 310 308 305 304 300 302 302 302 300 297 294 295 295 296 298 298 297 296 296 301 298 299 298 299 300 300 299 298 298 297 296 296 295
320 318 320 321 318 318 318 314 311 305 305 304 304 302 300 300 301 302 301 300 296 292 294 294 293 295 294 292 293 296 294 298 297 297 298 299 299 298 297 297 296 295 294
318 316 317 319 317 317 314 311 307 304 303 302 301 300 300 300 300 300 300 299 298 296 292 293 291 291 292 293 293 293 293 296 297 296 296 296 297 298 298 297 296 295 294
315 313 315 316 315 312 309 305 303 302 301 299 299 299 299 300 299 298 298 299 298 296 293 295 292 290 288 289 290 292 293 292 292 296 295 295 295 295 296 296 296 295 294
315 314 314 311 309 306 304 302 301 301 299 298 298 298 298 299 297 298 297 296 296 296 294 291 292 290 289 292 293 291 292 292 291 293 296 295 295 294 294 294 294 294 293
313 312 312 310 305 303 301 300 299 299 299 298 298 297 297 297 296 296 296 295 295 296 295 292 292 294 292 289 288 289 290 290 291 294 294 294 294 294 294 294 293 293 293
308 307 306 304 302 300 300 299 299 298 297 297 297 297 297 297 296 295 295 294 295 293 291 290 290 289 288 289 288 289 289 286 288 291 292 292 293 294 294 293 293 293 293
304 302 302 301 299 299 299 298 298 296 296 295 296 297 297 297 296 294 294 294 288 288 288 287 287 286 284 282 284 286 285 287 285 284 283 284 286 286 287 292 292 293 293
302 300 299 299 298 298 293 294 295 295 295 295 295 295 294 293 291 289 289 289 287 285 286 287 287 286 285 284 284 286 286 281 282 284 284 285 287 285 286 285 287 289 289
299 299 297 297 296 295 292 293 292 295 295 294 291 288 288 288 286 285 285 285 284 286 283 283 283 283 284 286 287 286 285 283 284 286 284 282 283 283 282 284 288 289 289
296 296 295 294 293 293 292 291 290 290 287 286 285 284 283 283 283 282 280 278 278 279 279 280 279 280 281 283 284 284 284 285 287 287 284 283 279 279 280 281 286 288 290
294 294 295 294 292 291 291 288 288 284 283 282 283 283 281 280 283 283 280 278 278 280 283 284 285 285 285 285 285 283 281 281 281 284 280 283 279 277 280 278 280 286 288
296 296 293 291 290 289 288 288 285 280 279 279 280 280 282 281 282 282 279 278 278 279 280 280 281 282 283 283 284 283 281 280 280 281 279 281 279 280 279 278 278 278 279

GFSMA_sfc_thetae_063.txt.gz
Theta_e
320 319 318 316 314 314 312 313 311 309 307 305 303 302 300 301 305 310 314 324 324 323 322 321 320 318 317 316 315 313 312 311 310 310 310 310 310 310 309 309 308 308 308
319 318 316 314 312 312 312 313 311 309 307 305 302 302 302 300 301 303 308 316 323 324 323 321 320 318 316 315 315 312 310 309 308 308 308 308 308 308 307 307 307 307 307
318 317 315 314 313 314 312 314 311 309 305 304 303 302 302 304 302 302 304 308 314 322 323 324 321 319 317 315 315 312 309 307 306 306 306 307 307 306 306 306 306 306 306
318 317 316 315 315 315 313 313 312 309 307 304 301 300 302 304 304 302 304 306 309 313 320 323 323 321 319 317 316 313 310 307 305 305 306 306 305 304 305 305 305 306 306
320 318 317 316 316 315 315 314 312 310 307 305 302 300 300 301 302 305 303 305 308 310 312 320 321 320 319 316 313 312 311 306 305 305 306 305 305 306 305 305 305 305 305
322 319 319 319 319 317 315 314 312 310 308 306 306 303 300 300 299 300 302 305 306 308 308 310 311 311 316 316 312 311 311 308 306 306 305 304 304 303 302 302 303 304 304
323 321 319 319 319 318 316 314 310 309 309 307 302 300 299 299 299 298 299 302 303 305 306 306 306 304 307 315 312 311 311 310 309 307 305 304 303 301 301 301 302 302 303
320 321 320 319 319 317 315 312 310 308 309 305 302 299 296 298 300 300 297 299 300 300 304 304 303 302 298 301 304 312 311 310 310 309 307 305 303 301 300 300 301 301 302
320 321 321 320 318 317 315 312 311 310 308 306 303 304 297 295 296 298 298 297 299 297 300 302 300 300 298 298 303 307 311 311 310 309 308 306 304 302 300 299 299 299 300
318 320 321 320 319 318 315 314 314 312 310 307 306 305 304 302 298 297 299 301 299 300 299 300 299 300 299 298 300 302 304 307 309 309 308 307 305 303 301 300 299 299 299
318 319 319 318 318 318 318 316 313 311 312 310 309 304 304 303 301 299 299 299 303 302 301 300 300 300 299 298 297 298 304 304 306 309 308 307 306 305 303 301 300 299 299
314 317 319 319 319 319 318 317 317 315 314 313 309 308 305 302 301 298 298 300 300 300 301 301 300 299 299 297 298 301 303 303 304 307 307 306 306 305 304 302 301 300 299
313 315 317 319 319 319 319 318 316 316 313 311 309 309 308 307 305 302 300 299 297 299 297 299 299 299 299 297 298 302 303 301 302 304 305 306 305 304 304 303 302 301 300
315 315 316 319 319 319 317 316 316 314 312 311 309 307 306 306 303 303 302 299 295 295 296 297 298 296 298 297 298 301 300 301 300 301 302 304 304 304 303 302 301 300 299
315 315 316 317 318 318 318 317 317 316 311 309 308 307 305 303 302 302 301 300 298 292 293 295 295 296 296 293 295 296 297 298 300 299 299 301 302 302 302 301 300 299 299
318 318 316 317 318 318 317 318 317 310 307 305 304 303 302 301 301 301 301 300 299 296 292 295 294 294 294 293 293 293 293 298 298 298 297 298 299 300 301 300 300 299 298
318 317 317 318 318 317 315 313 309 306 304 301 301 301 299 300 300 300 299 299 298 297 293 295 295 293 292 292 291 290 292 291 292 296 296 296 296 297 297 298 298 298 298
318 318 315 315 314 313 311 308 305 303 301 300 300 300 299 300 298 298 298 296 296 297 294 292 293 292 290 289 290 290 293 294 290 294 295 296 296 295 295 295 295 296 295
317 315 314 312 311 307 306 304 303 301 300 300 299 299 298 298 296 297 296 295 295 296 294 292 292 292 289 290 289 289 288 290 291 295 294 294 294 295 295 295 295 295 294
316 314 314 310 306 303 302 301 300 299 298 298 298 298 298 297 296 296 295 294 294 292 289 288 290 289 288 288 286 285 287 288 287 291 293 292 293 294 294 295 294 294 294
313 311 305 303 302 302 301 300 299 298 297 296 297 297 297 297 296 294 294 292 291 289 289 288 287 287 286 287 282 284 284 286 287 284 286 288 288 288 290 293 294 293 291
306 303 302 300 300 301 294 294 296 297 296 295 295 295 292 290 289 288 288 287 285 281 279 279 279 279 280 281 281 281 282 282 281 285 283 285 284 284 285 285 290 291 291
303 301 299 299 300 297 292 293 293 296 295 294 292 290 287 286 284 282 282 282 281 282 281 279 277 278 277 279 279 279 279 279 279 281 283 282 282 283 286 288 290 291 290
299 298 298 299 297 295 291 291 290 291 288 286 285 284 282 281 282 281 279 279 279 280 280 280 278 278 278 279 279 280 280 281 282 283 284 279 283 283 285 286 289 290 289
297 297 297 295 294 292 289 289 288 285 282 281 281 281 280 280 282 282 280 279 279 280 283 283 283 284 284 285 284 282 280 279 278 279 280 280 282 282 279 281 282 288 289
297 295 293 293 292 290 289 288 285 281 279 279 279 280 282 280 281 282 279 279 278 278 277 277 278 279 281 281 282 281 280 277 277 277 280 278 280 281 279 279 281 282 284

GFSMA_sfc_thetae_066.txt.gz
Theta_e
318 316 316 314 312 311 312 309 307 306 306 304 305 307 308 310 312 315 317 324 324 324 323 321 321 320 318 316 315 314 313 312 312 311 311 311 310 310 309 309 308 308 308
318 316 315 313 312 311 312 310 308 306 304 303 302 302 302 304 308 311 314 319 323 324 323 322 320 320 318 316 315 313 312 311 310 309 310 309 309 308 308 307 307 307 307
316 316 313 312 312 312 314 311 309 307 303 303 302 302 301 301 301 305 310 313 318 322 323 324 321 319 318 317 315 313 311 309 308 307 309 308 307 307 306 306 305 305 305
317 315 314 313 314 313 314 312 309 307 304 302 301 301 302 305 303 302 304 308 312 316 321 323 323 321 319 318 317 314 311 309 306 306 307 307 306 305 305 305 305 305 305
318 316 315 314 315 315 313 313 311 309 306 305 302 301 301 302 305 304 303 304 308 311 314 320 322 322 322 320 317 316 313 311 306 306 307 307 306 306 305 304 303 304 304
319 318 317 316 316 315 314 312 311 310 309 307 305 303 301 301 301 302 303 304 306 309 311 313 317 316 319 320 316 313 313 311 309 307 308 307 307 306 303 302 302 302 302
320 319 318 318 318 316 314 313 311 310 309 307 303 302 302 301 300 299 300 302 304 306 309 310 310 309 313 318 316 313 313 313 311 310 309 307 307 305 303 302 301 301 302
322 321 319 318 318 317 316 313 311 309 309 306 304 300 299 300 300 300 299 299 302 304 306 307 308 307 306 308 310 313 313 313 312 312 310 309 307 306 304 302 301 300 300
321 320 320 319 318 317 315 312 311 310 308 306 304 306 299 297 298 300 300 299 299 301 303 305 305 306 304 302 306 310 312 312 313 312 312 310 308 307 305 303 302 300 300
318 319 320 319 318 317 316 315 313 311 309 307 305 305 303 301 298 299 301 301 300 300 300 302 303 303 302 302 301 304 305 307 310 312 311 311 310 308 306 304 303 301 301
316 316 317 318 318 318 317 315 312 311 311 309 307 304 304 303 302 303 300 300 301 301 301 301 301 300 301 300 299 301 304 304 306 311 311 311 311 309 308 306 304 303 302
311 314 316 316 316 315 315 316 315 313 313 312 310 308 305 303 301 301 300 300 301 302 303 302 301 301 301 299 300 301 302 302 304 307 310 311 310 309 309 308 306 305 303
309 310 313 314 315 316 315 315 313 312 312 312 312 310 310 309 307 306 303 301 300 301 300 301 302 301 301 300 299 302 302 300 302 304 307 309 309 309 309 308 307 306 305
309 310 311 314 315 315 315 313 314 315 315 314 313 312 311 310 308 305 304 302 297 297 297 299 299 298 298 298 299 300 300 300 301 302 304 305 307 307 307 307 306 305 304
311 310 311 312 313 314 314 316 316 315 315 314 312 311 309 308 308 306 304 303 301 295 295 298 297 298 298 296 297 297 298 299 299 300 300 301 303 305 305 305 304 304 304
312 311 312 312 313 313 314 316 316 317 317 314 310 307 306 305 304 303 302 301 300 298 293 297 296 296 297 296 297 296 294 297 298 297 298 299 299 301 302 302 303 302 302
317 316 317 317 317 317 315 315 317 313 311 309 307 306 304 303 302 300 300 300 298 297 294 296 297 296 295 295 295 295 294 293 293 295 296 297 297 297 298 299 299 300 300
318 319 319 318 317 317 316 315 313 308 308 304 302 302 301 301 300 299 299 298 297 297 295 292 294 294 293 293 292 291 293 294 293 294 295 296 296 296 296 296 296 296 297
317 318 318 317 316 314 312 311 310 307 305 304 302 301 300 300 298 298 297 296 296 296 295 292 292 292 292 292 291 290 290 291 292 295 294 294 294 295 295 295 295 296 296
319 319 318 317 314 311 309 307 306 302 301 300 300 300 299 299 297 296 296 295 295 293 291 290 290 289 290 291 288 286 286 288 287 290 291 291 292 293 294 294 294 295 295
319 319 315 310 306 305 304 303 302 300 299 298 298 298 298 297 295 295 295 293 291 290 289 288 287 284 283 283 282 284 282 282 283 285 285 287 288 289 289 290 291 292 294
317 314 310 309 303 303 299 297 299 299 298 296 295 293 292 290 289 289 288 287 286 283 281 280 280 279 279 281 281 280 279 279 278 284 282 282 284 283 285 287 289 290 291
309 306 304 304 301 298 295 296 294 298 296 295 291 289 287 287 285 283 283 283 283 283 280 280 278 278 278 279 279 278 279 278 278 281 282 280 284 282 285 286 289 290 290
304 302 302 300 298 295 293 293 293 292 290 289 288 287 284 283 282 281 279 280 280 281 281 281 279 280 280 281 281 282 281 280 281 282 283 278 282 281 284 286 288 289 290
299 298 298 297 294 292 290 289 289 286 284 283 283 283 283 282 283 283 280 280 279 280 281 281 280 281 281 282 282 280 278 277 275 277 281 280 280 281 283 284 286 287 288
296 295 294 294 290 289 289 288 286 284 281 280 281 281 282 280 282 282 280 279 277 277 277 277 277 278 279 279 280 279 277 274 274 274 280 277 278 280 278 284 282 283 284

GFSMA_sfc_thetae_069.txt.gz
Theta_e
319 322 321 319 319 322 323 321 321 319 319 319 321 321 321 322 324 323 323 324 324 324 324 324 322 320 319 317 316 314 314 313 313 313 312 312 311 310 310 309 309 309 308
323 321 320 318 318 319 319 318 317 316 316 317 317 319 320 321 323 324 323 323 323 324 323 323 322 321 319 317 315 314 313 311 311 311 312 311 310 309 308 308 307 307 307
324 323 320 318 319 319 317 316 315 314 312 312 312 314 316 319 321 323 323 323 323 322 323 324 321 320 319 318 317 314 312 310 309 310 311 310 309 308 308 306 306 305 305
324 322 319 319 320 320 318 315 313 311 311 310 310 309 309 311 315 319 321 323 323 321 322 323 324 322 319 318 318 316 313 311 308 309 310 309 308 308 307 306 305 304 305
324 322 320 320 321 321 319 317 316 314 311 310 309 309 310 311 312 309 313 319 322 323 322 322 322 322 322 320 320 319 316 313 310 309 310 309 308 308 307 305 303 303 303
322 322 321 321 321 321 320 319 318 317 315 312 308 308 310 310 312 312 310 310 313 319 322 323 323 321 321 323 320 319 318 316 312 310 311 310 309 309 307 304 303 303 302
321 321 321 321 322 320 320 321 320 317 316 315 311 311 311 310 310 310 312 312 311 312 315 319 322 322 321 321 321 318 316 316 315 312 311 311 309 309 307 305 304 303 302
322 321 320 321 321 321 321 319 319 318 318 315 314 312 311 312 311 310 310 309 311 312 312 315 315 320 318 317 317 319 316 315 316 314 313 312 310 309 308 306 305 303 303
322 322 321 323 322 323 321 321 320 320 318 316 315 316 309 310 311 311 310 309 308 307 307 310 311 313 314 315 312 314 314 314 316 315 314 314 312 311 309 307 306 304 303
322 323 323 323 322 324 323 321 323 322 321 317 314 313 314 313 311 310 311 309 304 306 307 308 309 310 311 312 311 309 308 308 311 314 314 313 314 313 311 309 307 306 304
320 321 323 322 323 322 322 324 322 320 320 320 317 315 314 312 312 311 310 309 307 308 305 306 309 310 307 307 305 304 305 304 306 309 312 312 312 312 313 311 309 308 306
318 320 320 324 325 324 325 325 324 323 322 321 321 319 316 313 310 306 305 307 308 309 306 307 306 307 304 303 302 303 303 303 304 306 308 309 311 310 311 312 311 311 309
315 318 322 322 322 323 323 324 324 323 323 322 321 319 317 314 311 310 307 306 306 307 304 307 311 311 308 309 305 304 303 301 301 303 305 306 309 310 311 310 309 310 310
318 319 320 321 322 322 323 324 324 324 324 323 322 321 315 314 314 313 309 307 300 302 301 305 308 308 308 305 303 301 303 300 300 301 303 305 307 308 308 308 309 309 308
319 319 320 320 321 322 323 324 323 323 323 324 323 316 317 318 318 312 311 309 307 297 298 306 305 305 303 304 302 304 304 302 300 299 300 301 302 303 304 305 306 307 307
318 318 319 319 320 321 322 323 323 324 322 323 321 315 317 317 313 311 310 308 308 304 300 305 305 303 301 298 301 301 303 297 298 297 297 298 299 300 301 302 303 304 304
318 317 319 319 319 320 321 321 322 322 320 320 315 315 314 314 309 306 306 304 303 305 300 299 300 300 301 304 301 302 302 302 302 297 296 296 296 297 298 298 299 300 301
318 319 317 318 320 320 321 320 317 315 315 314 312 311 311 307 305 303 303 300 300 300 300 297 298 301 299 298 299 300 299 298 299 297 295 295 296 295 295 296 296 296 297
319 320 319 319 319 316 316 316 316 315 313 313 311 307 305 304 302 300 300 298 299 298 298 297 294 296 295 296 297 298 297 296 295 294 293 293 294 294 295 294 294 294 295
318 318 317 319 320 319 316 316 315 314 311 309 306 305 303 301 300 300 299 298 298 296 294 293 292 292 293 297 296 293 291 292 289 289 290 289 290 291 292 292 292 292 292
318 319 319 320 320 317 313 312 311 309 304 302 302 301 301 300 298 298 298 296 295 294 292 291 291 290 291 291 289 289 286 287 288 288 288 289 289 289 289 289 289 290 290
320 322 321 320 311 310 299 299 304 304 301 300 297 296 295 293 291 291 291 290 292 291 289 291 289 288 288 286 287 285 284 283 282 289 286 285 288 287 288 289 288 288 289
320 321 318 315 310 308 296 297 298 302 299 297 293 291 289 288 287 286 285 284 284 283 283 287 287 285 284 286 285 284 283 283 283 286 285 283 286 285 288 287 288 288 289
316 313 309 307 302 298 294 295 295 297 294 292 290 288 286 285 284 283 282 282 283 283 285 285 286 286 285 285 285 285 284 284 284 284 285 280 285 284 287 288 288 288 288
303 302 301 299 296 294 291 291 291 289 287 286 285 285 284 284 284 284 283 282 283 283 282 281 280 280 280 281 282 283 281 279 279 280 282 282 283 283 283 285 288 288 287
298 297 295 295 292 290 289 289 289 286 283 282 283 282 283 283 283 283 284 284 282 281 281 280 280 280 280 281 279 280 280 277 277 277 283 280 280 281 279 284 287 288 290

GFSMA_sfc_thetae_072.txt.gz
Theta_e
328 327 330 331 330 330 329 327 325 324 323 322 324 324 324 325 326 325 325 325 326 325 325 324 322 321 319 318 316 315 315 315 314 315 313 313 311 311 310 310 309 309 309
327 323 325 327 330 331 330 326 323 322 321 321 322 323 323 324 325 326 325 325 324 325 325 324 323 321 320 318 316 315 314 314 314 314 313 312 311 310 309 308 307 307 307
325 325 323 323 325 327 327 325 323 321 320 320 320 321 322 323 324 325 326 325 324 323 323 325 324 322 320 318 317 315 313 312 312 313 312 312 310 309 308 307 306 305 305
325 324 322 322 324 324 322 321 320 317 318 317 316 317 319 321 322 324 324 325 325 323 322 324 324 324 321 320 319 316 315 312 311 312 312 311 311 309 308 307 306 305 304
326 324 322 323 325 321 321 321 320 319 316 315 315 315 315 315 318 319 322 323 325 324 324 322 323 323 323 321 320 319 317 314 312 311 312 311 310 310 309 308 306 304 304
324 323 322 325 325 322 322 321 320 320 319 316 314 314 316 316 317 316 316 318 322 323 324 324 323 322 321 322 321 321 321 318 316 312 312 312 311 310 310 308 306 305 304
323 324 322 324 325 323 324 324 323 321 319 319 316 315 315 318 317 317 317 316 316 317 321 323 323 323 322 322 323 322 321 320 319 315 314 313 312 311 311 309 307 306 305
323 323 322 323 325 324 326 325 323 320 322 322 318 319 314 316 318 317 318 317 318 317 316 317 318 322 323 324 322 323 321 319 318 318 316 314 313 312 312 310 308 307 305
324 322 321 320 322 324 323 324 324 323 321 322 322 320 315 313 320 321 319 318 317 316 316 313 315 317 319 321 320 320 317 317 318 317 317 318 315 314 313 312 310 308 307
322 321 320 320 322 324 324 326 325 325 325 322 321 322 324 322 315 313 317 318 317 315 311 313 315 315 317 319 318 315 311 310 312 315 316 316 316 316 315 314 312 310 309
322 322 322 322 322 323 326 327 325 326 326 324 324 322 320 319 319 316 313 316 316 314 311 309 310 312 313 315 318 315 308 306 307 310 312 313 314 314 314 314 314 313 311
319 321 322 324 325 324 327 327 326 327 327 326 324 325 322 319 318 317 316 316 315 315 313 310 309 311 312 314 314 307 305 304 305 307 308 309 310 311 312 313 313 315 314
317 318 321 321 322 324 321 324 324 326 326 326 325 324 325 324 324 321 315 311 311 312 310 312 311 312 312 313 314 305 305 302 302 303 305 306 307 308 308 309 310 311 312
321 323 323 321 322 322 321 324 325 325 326 326 326 326 325 325 326 322 316 310 305 306 309 308 312 316 314 315 312 304 308 301 301 301 303 304 305 305 306 307 307 308 309
323 324 325 324 324 324 325 326 325 325 325 326 326 327 325 326 327 323 319 317 311 303 302 311 310 312 307 308 306 309 310 302 300 299 299 300 301 302 302 303 304 304 304
325 325 325 325 325 324 324 324 324 325 324 326 325 325 325 327 324 322 320 315 315 308 306 312 308 305 308 304 302 306 308 299 299 297 297 298 298 299 300 300 301 301 302
325 324 323 324 322 323 323 323 323 323 323 324 325 324 323 324 317 316 316 315 310 310 305 302 305 304 303 305 304 308 307 306 306 298 296 296 296 296 297 297 297 298 298
326 325 323 321 322 322 323 324 323 322 323 323 323 322 318 316 314 313 311 307 306 308 305 300 300 302 302 305 307 304 302 304 304 299 296 295 295 295 295 295 295 295 295
323 324 323 323 322 323 322 322 324 322 323 322 321 316 314 314 311 306 306 304 304 303 301 301 299 303 304 299 298 299 301 301 300 297 294 293 293 294 294 294 293 293 293
320 321 322 322 323 322 320 321 318 317 316 315 316 316 314 313 311 305 303 302 300 300 300 302 302 296 297 297 298 297 296 298 295 293 292 290 290 291 292 292 292 291 291
321 321 322 323 323 320 317 318 320 319 315 313 311 310 310 307 302 302 303 302 300 298 297 299 294 294 293 293 293 296 292 292 292 293 292 292 292 292 293 292 292 291 291
321 322 323 322 321 320 306 302 313 316 313 309 305 302 302 300 297 294 294 294 297 295 294 293 292 291 293 293 292 291 290 288 286 294 291 290 291 290 292 292 291 289 289
322 322 321 321 322 322 298 299 299 315 310 305 300 296 293 291 291 289 287 286 285 286 287 294 292 291 289 290 290 289 288 288 287 290 289 286 290 289 291 290 290 290 289
321 321 322 322 322 318 297 297 294 304 299 297 295 293 289 287 287 286 284 284 283 284 285 286 288 288 288 290 289 288 288 288 288 288 289 284 288 287 290 290 289 289 288
319 318 316 313 311 302 294 294 295 293 289 288 288 288 287 285 285 287 284 283 283 282 282 282 282 282 281 281 282 286 284 283 283 284 287 284 286 286 286 287 290 289 289
307 300 297 298 294 293 292 292 292 289 285 284 285 285 285 285 284 285 284 283 282 281 282 281 283 281 281 283 279 282 283 281 281 281 286 282 283 283 281 286 287 288 290

GFSMA_sfc_thetae_075.txt.gz
Theta_e
330 331 332 331 327 328 326 324 325 324 324 324 325 325 325 326 326 324 324 326 326 326 324 324 323 321 320 319 318 317 316 317 316 315 314 313 312 311 311 310 309 309 310
328 331 332 330 330 330 327 325 325 323 322 323 324 325 325 326 326 325 324 324 325 326 325 324 323 322 320 318 317 316 316 315 315 315 314 313 312 311 310 309 308 307 307
329 331 332 331 330 331 331 328 324 323 321 321 322 323 324 325 326 325 324 323 323 323 325 326 324 322 321 319 317 316 315 315 314 315 314 313 312 311 309 308 307 306 305
328 329 328 329 331 331 328 324 322 320 320 320 320 321 322 323 324 325 324 325 323 322 322 324 325 325 322 320 319 317 316 314 314 314 314 313 312 311 310 309 308 306 306
327 327 326 327 330 327 327 324 322 320 318 318 318 319 320 320 322 322 323 324 327 324 323 322 323 323 324 323 322 320 318 316 314 313 314 313 313 312 311 310 309 307 306
327 327 325 326 325 323 323 322 323 321 320 318 315 315 317 318 319 320 321 322 323 324 325 325 322 321 321 323 323 322 322 320 317 315 314 314 313 312 312 311 310 308 307
326 325 325 327 327 323 323 326 323 323 320 321 316 316 317 320 320 318 319 319 321 322 325 323 324 322 321 321 323 323 323 324 322 319 316 315 314 313 312 312 310 309 308
324 324 325 325 326 323 326 327 326 322 322 323 316 316 312 315 318 320 321 319 321 319 319 322 324 325 324 321 321 323 323 324 323 322 319 316 315 315 314 313 312 310 309
323 323 325 326 327 326 325 326 327 325 321 322 324 322 315 312 320 321 321 321 321 321 320 320 320 321 323 323 321 321 318 319 323 321 321 321 318 316 315 314 314 313 311
324 323 324 325 326 327 324 328 328 327 324 319 321 322 325 324 314 314 321 321 323 320 321 320 317 316 319 320 319 316 313 313 316 320 319 320 319 318 317 316 315 315 313
322 323 323 322 321 323 323 326 326 326 325 322 320 325 321 321 323 317 312 317 320 321 320 320 317 315 315 313 316 318 311 310 311 316 317 317 316 316 316 317 317 317 316
319 321 321 321 320 321 320 324 327 326 326 325 320 325 321 319 318 318 317 318 318 320 319 316 314 314 311 311 314 311 309 307 307 310 312 313 313 313 313 313 314 314 314
318 319 321 320 318 318 321 321 324 326 321 319 322 322 324 323 324 322 320 318 317 321 319 317 316 315 313 315 313 311 306 303 304 306 308 309 309 309 310 310 311 311 312
320 321 320 319 318 319 322 322 321 324 321 324 325 326 323 325 325 324 320 319 314 313 315 315 316 317 316 314 316 306 308 302 302 302 303 305 306 307 307 306 307 307 308
324 324 322 319 319 319 321 325 319 320 321 322 322 326 324 325 326 325 325 322 318 310 309 314 313 315 318 319 310 312 311 303 302 301 301 302 303 303 303 303 303 304 304
326 324 323 322 321 320 322 325 324 323 319 320 325 326 326 326 326 327 326 323 320 313 309 315 314 314 315 312 307 310 311 303 300 298 298 298 299 300 300 300 300 300 301
327 326 325 324 323 323 324 324 323 324 322 323 324 324 324 326 325 325 324 321 319 314 309 309 307 310 307 307 304 307 309 308 307 299 298 297 296 296 297 297 297 297 297
328 327 326 325 325 324 325 324 323 322 323 322 324 324 323 323 323 325 320 316 314 312 309 307 301 303 302 305 304 304 307 308 308 301 299 297 295 294 294 294 294 294 295
328 326 325 325 324 324 324 324 324 324 324 323 324 324 323 324 321 318 315 312 312 310 309 306 300 301 301 302 303 302 301 302 303 301 295 294 294 294 293 293 293 293 293
327 327 326 326 325 324 324 324 323 323 324 323 323 323 323 321 317 315 311 310 309 305 303 302 300 299 299 300 298 298 298 300 298 299 296 291 293 294 293 292 292 292 292
326 327 326 326 327 325 323 324 323 321 319 319 319 318 318 314 307 310 312 309 305 304 300 300 296 297 296 295 295 297 294 296 297 296 294 295 294 294 294 293 292 293 293
325 326 325 325 325 323 309 302 311 317 315 315 315 317 315 305 304 298 298 299 302 301 299 298 295 294 294 295 294 294 293 290 288 296 293 291 294 292 293 294 292 290 290
325 324 324 324 324 325 302 301 300 318 316 316 317 312 302 299 299 295 290 289 288 288 289 295 292 291 291 292 293 291 289 289 288 292 291 289 292 290 292 292 291 291 290
324 324 324 325 324 323 298 300 297 316 318 315 308 302 296 292 292 290 288 286 285 285 286 288 289 288 287 290 290 290 290 289 290 290 290 285 290 289 292 292 291 290 290
324 323 323 322 320 320 296 297 300 298 292 290 290 291 291 288 288 289 286 285 285 283 284 284 284 284 283 283 283 288 286 285 285 285 289 287 287 287 289 288 289 290 289
322 317 305 303 297 300 293 294 295 292 287 286 287 287 287 286 285 286 285 283 280 280 280 280 280 281 281 281 280 283 284 282 282 282 286 284 284 284 281 287 288 288 289

GFSMA_sfc_thetae_078.txt.gz
Theta_e
327 328 328 321 320 320 320 318 319 320 320 318 321 321 321 322 320 321 321 326 326 326 325 325 323 322 321 319 318 318 318 318 317 316 315 314 313 312 312 311 310 311 311
328 328 327 320 321 321 319 318 321 320 319 320 320 321 322 321 320 320 320 321 324 326 326 324 324 322 321 320 318 318 318 317 316 316 315 313 312 311 311 310 309 309 308
327 327 326 323 324 322 320 321 321 319 318 319 319 320 321 323 321 320 319 320 321 323 324 325 324 323 321 319 318 317 317 316 316 316 315 313 312 311 310 309 308 307 307
327 327 326 325 326 323 323 322 319 317 317 316 316 317 318 319 321 320 320 319 319 320 323 324 325 324 323 320 319 318 316 316 316 316 315 314 313 312 311 310 309 307 307
325 325 325 327 328 325 324 320 319 316 316 315 316 316 316 316 318 321 320 318 319 319 320 323 324 323 323 323 321 320 319 317 316 316 316 315 314 313 312 311 310 309 308
325 324 324 326 324 323 321 319 318 318 315 315 315 314 314 315 317 317 318 321 319 319 318 319 320 320 322 323 323 322 322 321 318 316 316 316 315 314 313 312 312 310 309
323 323 321 322 322 320 317 318 319 316 315 316 312 311 311 313 313 312 317 317 318 320 319 320 318 318 319 322 324 323 325 324 322 320 318 316 316 315 314 314 313 312 310
322 322 321 320 319 318 318 320 319 316 316 316 311 310 307 310 313 315 313 314 314 317 318 319 318 318 318 318 318 323 324 325 324 324 321 319 318 316 316 315 314 314 312
322 322 322 322 321 320 321 320 320 318 315 315 317 314 309 307 310 313 314 314 312 314 313 316 317 319 319 318 318 318 318 319 324 326 325 323 321 318 317 316 316 315 314
321 319 322 322 322 322 321 321 323 321 320 315 316 318 319 317 309 308 315 315 315 315 314 314 314 314 315 315 319 316 314 313 317 323 325 324 324 321 319 318 317 317 316
320 321 320 323 322 322 323 323 322 322 320 318 316 317 316 316 316 311 308 313 315 316 315 314 314 312 312 312 312 313 311 311 313 318 322 323 322 321 321 320 319 318 318
319 320 321 322 322 322 322 323 324 322 320 319 317 317 315 313 313 312 310 311 311 314 316 314 313 310 310 309 312 311 310 308 310 314 317 320 320 319 318 317 316 316 316
317 318 319 319 319 319 320 320 320 319 319 317 317 316 317 318 317 316 313 311 310 314 314 311 311 310 312 310 310 310 310 306 307 310 312 313 314 315 314 314 314 314 313
317 318 319 319 318 318 318 318 318 318 318 318 317 317 317 317 318 318 315 312 307 310 311 311 313 313 312 313 312 309 309 304 304 305 306 308 308 309 309 309 309 309 309
318 317 318 319 318 317 317 317 317 317 318 318 318 317 318 319 318 319 317 315 311 305 306 308 310 314 315 315 312 311 309 303 302 303 302 303 305 306 306 306 305 305 305
320 317 317 318 318 317 316 316 316 317 317 318 319 318 318 318 319 319 318 317 316 313 308 310 310 311 313 314 309 308 308 303 301 300 300 300 301 302 302 302 302 302 302
321 320 319 318 318 317 316 316 316 317 317 316 316 316 317 318 319 320 318 318 316 315 311 312 310 310 307 308 305 305 304 303 300 298 298 298 298 298 298 298 298 298 298
323 321 321 319 319 318 317 316 316 317 316 316 316 316 316 318 319 319 318 317 317 317 314 310 308 305 306 307 303 302 306 307 305 300 299 298 297 296 295 295 295 295 294
322 322 322 320 319 318 318 317 316 316 317 317 317 317 317 317 316 317 317 317 317 313 313 312 309 304 304 303 301 301 302 302 303 301 299 297 296 296 295 293 293 293 294
323 323 322 322 321 321 320 319 318 317 317 318 318 318 318 317 316 317 316 316 313 312 311 310 309 303 301 300 302 299 296 299 299 301 299 296 295 295 294 293 293 293 293
324 324 322 321 321 320 320 319 319 318 317 317 318 318 318 316 309 312 316 314 313 310 310 307 305 298 297 294 296 298 296 295 296 297 292 291 289 288 289 293 293 294 293
322 323 322 321 320 320 308 303 312 318 317 317 316 316 313 306 304 300 301 302 308 309 308 305 303 298 298 298 297 293 291 289 286 294 290 288 290 287 289 289 292 292 292
321 321 321 321 321 321 303 302 300 317 317 316 313 313 309 306 303 307 290 291 289 288 287 301 300 292 289 291 290 287 286 285 285 289 288 284 286 284 288 290 292 291 290
320 320 320 320 320 320 302 299 298 313 317 313 311 311 311 301 295 292 288 286 286 286 287 289 287 286 287 288 288 287 286 286 288 288 288 280 284 284 287 288 291 292 291
320 320 320 319 318 318 300 297 298 311 305 293 292 292 292 290 290 291 288 285 282 282 286 287 286 286 285 284 285 286 283 283 283 282 285 283 283 283 284 282 284 289 289
320 319 317 310 305 311 293 294 300 297 288 286 286 287 287 287 287 288 287 285 282 280 281 280 281 282 282 282 282 282 282 281 281 280 281 281 280 280 278 282 282 281 282

GFSMA_sfc_thetae_081.txt.gz
Theta_e
328 327 326 324 322 322 318 316 316 315 315 316 318 318 319 319 319 320 320 325 326 327 326 326 325 323 322 321 320 319 319 319 318 317 315 315 314 314 313 312 312 313 313
329 326 321 319 319 319 316 316 317 315 314 316 317 318 319 319 319 319 319 321 324 326 326 325 324 324 322 320 320 319 319 319 317 317 315 314 313 312 311 311 311 310 310
328 324 319 317 317 317 314 317 318 317 316 317 316 318 319 318 318 319 318 318 320 323 324 325 324 323 323 321 320 319 319 318 317 317 315 314 313 312 311 310 309 308 308
327 325 318 319 318 319 315 318 318 315 314 315 314 315 317 318 317 318 318 318 317 318 322 324 325 325 323 321 320 320 319 318 318 317 316 315 314 313 312 310 310 308 307
326 326 321 322 320 320 317 319 317 315 314 313 314 313 314 317 317 318 317 317 316 317 318 322 323 323 323 323 321 320 320 319 318 318 317 316 315 314 313 312 311 310 309
325 325 324 324 323 320 319 317 316 314 314 315 316 314 313 314 316 316 316 317 317 317 318 319 320 319 321 324 324 322 322 321 319 318 318 318 317 316 315 313 313 312 311
323 324 323 323 323 321 317 316 314 313 311 313 310 309 309 310 312 313 315 316 316 316 317 318 319 319 319 322 324 324 325 324 323 320 319 318 318 317 316 315 314 313 313
321 320 321 321 320 318 316 314 315 314 312 313 309 308 303 307 309 310 309 314 315 317 316 317 317 318 318 318 319 324 325 326 325 324 321 321 320 319 317 316 315 315 314
321 321 320 320 318 319 316 316 316 314 312 313 312 311 306 304 306 309 309 308 310 311 315 317 317 316 317 316 318 319 319 320 325 327 326 324 322 321 319 318 317 316 316
320 320 319 319 317 317 316 317 318 316 315 311 313 317 315 313 306 305 311 310 311 310 310 311 316 317 317 317 317 315 313 313 317 323 326 326 325 323 321 320 319 318 317
319 317 319 318 317 318 318 318 318 318 318 314 311 312 312 312 312 309 306 310 314 313 313 312 313 313 316 317 317 315 312 310 312 318 322 325 325 324 323 322 321 321 320
315 316 319 320 320 319 319 319 320 320 319 317 315 315 313 311 311 309 307 307 309 313 315 314 312 312 310 310 312 313 311 309 310 314 317 320 322 323 323 323 322 320 320
315 317 317 319 320 321 320 321 320 320 319 317 317 316 316 315 316 314 311 309 308 310 311 312 313 314 311 309 310 309 309 306 307 310 313 316 318 320 321 321 320 318 317
317 317 318 319 320 320 320 319 319 319 318 317 315 315 315 316 317 317 314 311 306 308 310 310 311 310 310 310 310 307 309 304 304 305 308 311 314 315 314 314 315 315 314
319 318 316 317 318 318 318 318 317 316 317 317 316 315 316 316 316 316 316 315 311 305 305 308 310 312 312 311 311 311 311 309 304 303 304 306 308 309 309 309 309 309 309
317 317 317 317 318 317 317 316 316 316 316 316 316 315 315 316 316 317 316 317 316 312 307 308 310 312 312 313 312 311 311 308 302 301 302 303 303 305 305 305 305 305 305
318 316 316 316 316 316 315 314 314 314 315 315 316 316 316 316 316 316 317 316 315 315 311 313 311 310 307 312 313 311 310 308 303 300 299 300 300 300 301 301 301 301 301
321 318 317 314 315 316 316 314 313 314 313 314 315 315 315 316 315 316 316 316 316 316 313 311 313 305 307 308 310 306 307 307 304 300 298 299 298 298 297 297 297 297 297
321 320 319 317 314 315 315 314 314 313 313 313 314 314 314 314 312 313 314 315 316 316 316 313 312 307 309 303 303 303 304 304 305 302 298 298 297 297 296 295 295 294 294
320 319 319 318 318 317 316 315 315 313 313 314 314 314 314 314 313 313 314 315 316 315 314 313 312 309 304 302 305 303 298 301 301 303 301 298 297 296 296 295 293 293 293
321 321 320 319 319 318 317 316 316 314 313 313 313 314 315 313 308 311 314 315 315 314 314 311 310 308 298 296 299 301 301 300 296 298 296 295 294 294 293 294 293 294 294
321 321 320 319 318 319 308 303 311 315 314 313 312 313 314 306 306 301 301 303 309 313 311 311 310 307 304 302 301 299 294 290 289 294 290 290 291 289 290 290 292 292 292
320 320 320 320 319 319 303 302 300 316 315 314 314 314 313 313 305 310 294 292 290 290 288 306 308 308 297 295 291 288 286 286 285 289 288 285 287 287 289 290 291 292 291
318 318 319 319 319 319 302 299 298 313 316 315 314 314 312 306 303 297 291 288 286 286 287 290 291 289 289 290 291 289 288 286 286 288 288 283 285 284 286 288 291 292 291
318 318 319 319 317 318 301 299 298 310 312 314 298 297 306 300 293 293 289 285 284 284 287 288 287 287 287 288 288 287 284 284 282 283 284 283 283 283 283 283 285 289 287
319 319 318 317 311 318 299 298 299 311 300 289 287 288 289 291 289 289 287 285 282 282 282 282 282 283 284 284 284 285 284 282 282 280 281 281 280 280 278 281 281 281 282

GFSMA_sfc_thetae_084.txt.gz
Theta_e
329 328 327 326 324 322 318 314 313 313 314 316 319 318 317 318 318 319 319 325 326 327 327 327 326 325 323 322 322 321 320 320 319 317 317 317 316 315 314 314 314 314 313
327 326 325 323 322 320 318 316 315 312 313 315 318 318 318 318 318 318 320 322 325 326 327 326 325 325 324 322 321 320 320 319 318 317 316 315 314 314 313 312 313 312 311
326 323 321 319 320 317 316 316 314 313 313 315 317 317 317 317 317 318 317 317 321 323 325 326 325 323 323 322 321 320 320 319 318 317 315 314 313 312 311 311 311 310 309
326 321 318 317 318 313 314 314 315 313 314 314 315 316 316 317 317 317 317 317 316 319 322 324 325 325 323 322 322 321 321 319 319 318 316 315 314 313 312 311 310 309 309
325 319 317 317 317 312 313 316 314 314 313 313 314 315 315 315 316 318 316 315 315 316 316 323 323 323 324 324 322 322 322 321 320 319 318 317 315 314 313 312 311 310 310
326 321 318 319 319 312 314 316 314 314 315 314 315 314 315 315 314 315 315 317 315 315 316 317 319 319 321 323 323 322 323 322 321 320 320 319 318 316 315 314 313 312 311
326 323 321 320 320 315 316 316 313 314 312 313 309 308 308 313 313 313 314 314 315 316 315 316 317 317 318 322 324 323 324 324 323 322 320 320 319 318 317 316 315 314 314
324 324 321 322 320 320 316 315 312 310 310 311 310 306 303 306 310 311 313 313 313 316 316 317 317 317 317 317 319 324 325 325 325 324 322 322 321 321 318 317 317 316 315
322 324 322 321 321 319 316 314 313 313 310 311 311 309 304 302 304 307 308 313 312 313 314 315 316 317 317 316 318 319 319 319 325 328 327 324 322 322 321 319 318 317 317
319 320 321 320 320 318 316 315 315 313 312 310 310 315 313 311 303 302 308 307 309 312 314 314 315 315 316 317 317 316 313 314 317 324 327 327 325 324 322 322 321 320 318
319 318 319 318 318 321 317 317 315 314 313 312 310 312 311 312 310 307 304 307 310 310 310 312 315 315 315 316 315 315 311 311 313 318 322 325 327 325 324 323 322 322 322
317 317 318 318 317 319 319 317 317 316 316 313 312 313 312 311 309 308 304 305 307 310 313 311 310 312 315 316 316 313 310 309 310 314 317 320 323 325 325 324 324 323 323
315 316 316 318 317 318 319 318 318 317 317 315 314 313 314 314 314 311 308 306 307 309 311 312 313 313 312 312 313 312 311 307 308 310 313 316 318 320 321 323 324 324 323
317 318 317 318 319 319 319 319 318 318 318 317 315 314 315 315 315 314 310 308 305 307 309 310 311 314 313 313 311 308 311 305 306 307 309 312 313 315 316 318 320 321 321
317 317 317 318 319 319 320 320 319 318 319 318 316 316 315 315 316 316 316 313 308 304 306 307 310 312 313 311 311 310 310 307 304 303 304 307 310 312 313 314 316 316 316
317 317 316 317 318 318 319 318 319 319 318 318 318 316 315 316 315 316 316 316 314 311 307 309 311 313 313 312 311 311 312 308 304 302 302 302 304 307 309 310 310 310 310
319 317 317 315 316 316 316 316 318 317 316 317 317 316 315 315 315 315 315 315 314 314 310 312 314 314 311 313 313 312 313 311 311 303 301 301 301 302 303 303 304 304 305
320 318 317 316 314 315 316 315 315 316 314 314 315 315 314 315 314 315 315 314 314 315 312 310 312 309 308 312 313 314 312 312 312 306 301 300 300 300 300 299 300 299 300
320 319 317 316 315 315 314 315 315 314 313 312 313 313 313 314 314 314 314 314 314 314 313 312 311 314 313 305 305 304 305 307 307 305 299 298 298 298 298 297 297 297 297
320 320 319 317 315 314 315 315 314 313 312 313 312 312 313 313 313 313 313 313 313 313 312 312 311 312 312 307 307 306 302 303 305 306 301 298 298 297 297 296 296 296 295
319 319 319 318 318 316 314 313 314 313 312 312 312 312 313 312 307 310 312 311 311 310 311 310 311 312 307 298 302 306 307 305 299 299 299 298 297 297 297 296 295 294 293
318 318 318 317 317 317 307 301 309 313 312 311 310 311 312 305 305 300 300 302 309 311 310 310 311 310 311 306 307 306 302 292 291 294 293 290 293 292 293 293 292 292 293
318 318 318 318 317 317 303 301 299 314 314 313 312 312 311 311 304 310 299 296 294 293 293 312 311 312 311 311 307 300 297 293 288 289 289 285 288 288 292 292 292 292 292
318 318 318 319 319 319 302 300 298 312 315 315 314 312 311 311 309 308 302 297 294 290 290 292 296 298 292 294 297 295 291 286 287 287 288 284 285 285 287 289 290 291 291
318 318 318 318 318 319 301 299 299 311 314 314 315 314 313 311 305 299 299 292 285 285 288 289 288 288 288 289 290 290 286 286 283 283 283 284 283 283 284 284 287 287 286
318 319 318 318 312 318 304 300 301 313 310 310 312 295 290 301 299 293 304 293 287 283 284 284 283 283 284 284 284 286 286 283 281 279 279 281 280 280 279 281 281 281 281

GFSMA_sfc_thetae_087.txt.gz
Theta_e
329 331 329 328 325 323 321 317 313 314 316 317 317 317 318 319 317 319 320 326 327 328 328 328 327 326 324 323 322 321 321 321 321 320 319 318 317 317 316 316 316 315 314
330 329 327 324 323 322 318 316 313 313 315 317 316 317 318 318 317 316 319 322 325 327 328 327 326 325 324 323 322 321 321 320 319 318 318 317 316 315 315 315 315 313 312
328 327 325 322 321 321 318 317 312 312 314 317 315 316 317 317 316 317 317 318 321 323 325 327 326 324 324 323 321 321 320 320 318 317 317 316 315 314 314 313 313 312 311
327 325 322 320 319 317 316 316 313 312 314 316 314 316 316 317 316 316 316 316 317 318 322 325 325 325 324 323 322 322 321 319 319 317 317 315 315 313 313 312 311 311 310
325 322 320 318 315 314 315 315 313 313 313 313 314 314 314 314 315 317 315 315 315 316 316 323 323 323 323 323 323 323 322 321 320 319 317 316 315 314 313 312 312 311 310
323 319 318 317 316 312 314 313 312 312 312 314 315 314 313 313 314 314 314 316 315 315 315 316 317 317 321 324 323 323 324 323 322 321 320 319 317 316 315 314 313 313 312
322 318 318 316 315 312 314 314 312 311 310 312 309 308 309 312 312 313 314 314 314 315 315 315 316 315 318 323 324 324 325 325 324 323 322 321 320 318 317 316 315 315 314
322 319 319 316 315 312 315 313 312 310 310 311 310 306 304 307 309 312 312 314 314 315 315 315 315 316 315 317 318 324 324 325 325 324 323 323 323 321 319 319 317 317 316
324 321 320 318 317 313 315 314 313 311 309 310 312 308 302 302 305 308 311 312 312 313 315 315 316 316 316 316 317 319 319 319 325 327 327 325 323 323 323 321 320 319 318
323 322 320 320 319 318 315 315 314 314 312 310 309 312 311 309 304 302 308 310 313 312 313 314 315 315 316 316 316 315 313 313 317 323 327 328 326 324 323 323 322 322 320
320 322 321 320 320 319 317 315 313 312 312 311 308 311 311 311 309 306 303 306 308 312 314 313 314 314 315 316 316 315 312 310 313 318 322 325 327 327 325 324 324 323 322
318 318 320 319 319 319 316 316 315 313 312 312 312 312 311 310 309 308 305 306 306 308 311 312 313 314 314 314 315 313 310 309 310 314 318 320 323 325 326 326 325 324 324
316 316 316 318 318 319 319 317 317 315 314 312 312 311 313 314 313 312 309 306 307 310 310 312 311 312 313 315 315 312 311 307 308 311 313 316 318 320 322 323 325 326 325
316 315 314 317 317 318 319 318 317 317 317 315 313 312 313 314 314 314 311 308 305 305 307 309 312 314 313 313 312 309 314 306 306 307 309 311 313 315 316 318 320 322 323
316 317 317 316 317 317 317 318 318 316 317 316 315 314 313 314 315 314 313 312 310 304 304 307 309 313 314 315 313 312 311 309 305 305 305 307 310 311 312 313 315 316 318
314 314 314 316 317 318 318 318 317 318 317 317 316 315 314 314 315 315 315 314 312 310 307 309 309 311 313 313 313 312 310 308 304 302 302 304 305 308 309 310 311 312 313
316 314 315 315 315 317 318 318 318 318 316 316 317 316 316 316 316 315 315 315 314 313 309 312 313 312 310 312 313 312 312 311 312 303 301 301 301 302 303 305 306 307 308
319 317 315 315 314 315 316 316 316 317 315 316 317 316 315 316 315 316 315 314 314 313 311 309 313 312 310 312 314 314 313 313 314 309 303 302 301 300 300 301 301 302 303
319 319 318 316 315 314 314 314 315 315 314 315 315 315 314 314 313 313 313 313 312 312 313 311 311 313 312 310 310 310 311 313 313 309 303 300 300 300 300 299 299 299 299
319 319 319 318 317 316 314 313 314 314 314 314 313 314 314 313 313 313 312 311 311 311 312 311 311 311 312 312 307 307 306 305 309 310 304 301 299 299 299 298 298 298 298
319 319 318 318 317 316 316 315 314 313 312 313 313 312 312 311 307 309 312 312 311 310 310 310 309 310 310 306 305 310 308 310 308 307 305 301 299 299 298 297 298 297 296
318 318 317 317 316 315 305 301 309 313 313 312 311 312 312 304 304 299 300 301 308 310 309 309 309 308 309 310 310 309 309 305 301 298 300 294 296 295 297 297 295 293 292
317 317 318 318 317 317 304 300 299 313 313 312 312 312 311 311 304 309 300 297 297 297 300 310 308 309 309 310 312 308 307 307 305 292 291 285 288 288 292 292 292 292 292
317 317 317 317 318 318 304 302 299 310 312 313 313 312 312 311 310 307 306 306 302 305 302 302 306 310 311 304 304 307 309 294 287 286 288 284 285 285 288 290 291 291 291
303 306 317 318 317 317 303 300 300 310 312 312 314 314 313 312 307 300 306 305 303 286 289 289 288 288 288 289 292 292 288 289 284 282 282 284 283 283 284 284 286 288 287
298 301 304 301 292 294 289 290 296 312 310 310 312 312 302 309 301 297 304 306 301 289 285 283 282 282 282 283 283 285 288 289 281 279 279 281 280 281 279 281 281 281 281

GFSMA_sfc_thetae_090.txt.gz
Theta_e
328 329 330 331 328 327 322 316 316 319 317 317 317 317 317 318 318 320 321 326 327 329 328 328 328 327 325 324 323 322 323 322 321 321 321 320 319 318 319 318 317 316 316
328 328 329 328 325 325 322 316 316 317 316 317 315 316 317 317 317 319 320 323 325 327 328 327 327 326 325 324 323 322 322 322 321 320 319 319 318 318 317 317 316 315 314
328 328 328 325 324 321 316 313 313 315 315 316 315 315 316 317 317 318 318 320 322 324 326 327 326 325 324 324 323 322 322 321 320 319 319 318 316 316 316 316 315 313 312
329 328 325 323 323 320 317 313 313 314 315 315 314 315 315 316 316 317 318 318 319 320 323 325 326 325 325 324 323 323 322 321 320 319 318 317 316 315 315 314 314 312 311
327 325 323 320 320 319 318 314 313 315 314 314 314 314 314 315 315 317 316 316 317 318 319 323 323 323 324 324 323 324 323 321 320 319 318 317 316 315 314 314 313 313 312
324 322 320 317 318 317 316 314 313 314 315 315 315 312 312 313 315 315 315 316 316 317 317 319 320 319 321 324 323 324 324 324 322 321 319 318 317 316 315 315 314 314 313
321 319 318 316 315 315 314 313 311 312 311 314 311 308 309 311 313 313 314 315 315 316 316 317 318 317 319 323 325 324 325 326 325 323 322 321 319 318 317 316 316 315 315
321 319 317 316 313 313 314 312 312 310 310 314 309 307 304 308 311 312 313 314 314 316 316 317 316 317 317 318 320 324 325 326 326 326 324 324 323 322 320 319 318 317 317
321 320 318 316 313 313 313 313 311 310 311 311 314 309 303 304 307 310 311 313 313 313 316 316 316 317 317 316 318 319 319 320 325 328 327 326 325 324 324 322 321 320 319
320 320 318 316 314 313 314 314 314 311 312 309 310 311 311 309 306 303 308 311 313 313 314 315 316 316 316 317 317 315 313 313 316 323 327 328 327 326 325 324 324 323 322
320 320 318 316 316 315 315 315 313 312 313 312 310 311 311 310 309 305 303 306 310 313 314 314 315 316 316 317 317 315 311 310 312 318 322 325 327 328 326 325 325 324 324
320 320 320 318 316 315 315 315 315 313 313 313 313 312 311 309 308 308 306 306 307 309 314 315 314 314 315 315 316 313 311 309 310 314 317 320 323 325 326 327 327 326 325
317 319 319 318 317 313 313 316 315 314 313 312 312 311 312 312 313 311 309 307 307 309 309 312 314 315 315 315 315 311 311 307 308 311 313 316 318 320 322 323 325 327 327
318 318 319 319 318 318 317 317 316 315 314 313 312 312 311 314 314 313 311 308 306 307 308 310 312 312 314 315 315 310 314 306 306 307 309 311 313 315 316 318 320 322 323
317 316 316 317 317 317 319 316 316 316 316 314 313 312 312 313 315 315 314 313 310 305 305 309 310 313 314 314 312 313 313 310 305 305 305 307 309 311 312 313 315 316 318
314 314 314 314 315 315 317 318 317 317 316 317 316 314 314 314 313 314 314 313 313 311 307 310 310 312 314 314 314 314 314 309 305 303 303 304 305 307 309 309 311 312 313
313 313 314 314 314 315 316 315 316 317 315 316 316 315 314 315 314 314 314 314 313 313 309 312 313 313 311 313 313 314 314 313 312 302 302 302 302 302 304 305 306 307 309
314 314 313 313 314 314 315 315 314 315 314 314 315 315 314 315 314 315 314 314 313 314 312 309 313 313 311 314 315 315 313 314 314 309 303 302 302 301 300 300 301 302 303
318 316 314 313 313 313 315 316 316 315 315 315 315 314 314 315 314 314 315 314 314 314 313 311 311 314 314 311 311 312 314 315 314 310 305 302 301 301 301 300 300 300 301
318 318 318 316 315 314 313 314 314 314 314 314 315 315 315 315 314 314 313 313 313 313 312 311 311 311 312 312 311 311 310 310 312 313 309 306 305 302 301 300 299 299 300
317 317 317 317 317 316 315 313 314 314 313 313 314 313 314 313 307 310 314 313 312 310 310 310 309 310 310 310 307 311 308 311 312 310 311 310 305 305 304 299 301 299 299
318 318 317 316 315 316 305 301 308 313 313 312 312 312 313 305 305 299 300 302 309 311 309 309 309 308 309 310 311 310 309 308 306 310 307 308 301 303 302 300 298 296 296
316 318 318 318 317 317 302 301 298 313 314 313 312 312 312 312 305 310 301 296 297 296 299 311 309 308 308 310 310 309 309 308 307 309 301 296 290 290 293 295 294 293 292
302 305 307 314 317 318 296 297 297 309 313 314 314 313 313 313 313 311 309 308 304 305 304 303 307 310 311 312 310 309 309 307 291 287 290 289 286 285 289 291 293 292 292
297 300 298 293 291 293 288 289 291 307 310 312 314 314 314 312 307 301 307 306 305 303 289 291 289 287 287 287 288 299 294 289 286 283 282 285 284 283 283 283 285 287 287
294 294 290 288 286 287 286 288 289 295 303 309 310 311 296 291 288 292 304 307 305 303 286 283 282 282 283 283 283 283 286 295 286 280 280 281 280 282 278 281 280 280 281

GFSMA_sfc_thetae_096.txt.gz
Theta_e
337 337 339 340 339 338 336 335 331 334 335 334 333 332 332 331 330 329 329 328 329 331 330 330 329 330 329 327 326 324 323 323 323 323 323 323 323 322 321 321 320 319 319
337 337 338 338 337 335 334 331 333 334 334 333 332 332 330 330 329 328 328 328 326 328 330 330 330 329 328 328 326 325 324 324 323 323 322 322 322 321 320 319 319 318 318
338 336 337 335 332 330 332 330 332 333 332 331 331 331 330 328 327 327 327 327 327 325 328 330 330 329 328 327 325 324 323 323 323 323 322 321 321 321 320 319 318 318 317
336 335 333 335 332 328 329 326 329 329 330 329 329 329 327 326 327 327 327 328 328 327 326 327 328 329 328 326 325 324 324 323 322 323 322 321 320 320 320 319 318 317 316
334 332 331 331 326 325 325 326 329 330 328 327 327 328 326 326 327 326 325 327 328 327 326 325 326 325 326 326 324 325 325 323 323 322 322 321 320 319 319 319 318 317 316
331 329 329 327 324 321 321 323 327 329 330 327 324 324 325 327 327 325 325 326 327 327 326 325 326 324 323 326 325 324 325 325 324 323 322 321 320 319 318 318 318 317 316
328 328 327 325 323 321 320 323 327 327 326 328 322 321 322 324 324 324 325 326 325 326 327 327 326 325 324 323 325 325 326 326 326 324 323 322 321 320 319 318 318 317 317
324 326 326 324 323 321 320 322 327 325 324 326 321 320 314 317 321 324 323 324 324 324 324 325 326 325 325 325 324 325 326 327 328 326 324 324 323 322 320 319 318 318 318
323 323 324 324 323 322 321 325 327 325 322 324 326 321 314 312 318 322 322 324 324 323 323 324 325 325 325 325 323 322 320 321 326 329 328 326 325 324 323 323 322 321 320
323 323 321 322 322 324 325 324 326 328 325 321 324 325 324 322 315 313 320 323 324 322 323 322 323 325 326 325 322 318 315 314 317 324 327 329 328 327 326 325 324 324 324
325 321 322 323 324 324 324 327 327 328 326 325 321 321 321 322 323 317 313 317 321 322 323 323 323 323 324 325 325 321 313 311 313 318 322 326 327 328 328 327 326 326 326
321 321 319 319 321 323 322 322 321 321 321 324 323 324 321 318 318 316 313 316 316 320 322 323 323 323 324 324 322 315 312 310 311 314 318 321 323 324 326 328 328 328 327
320 318 318 317 317 318 318 318 318 317 319 320 321 323 323 322 320 318 316 314 315 319 321 323 323 324 323 325 325 315 313 308 309 311 314 316 318 320 322 323 325 327 328
321 320 319 318 317 318 318 318 317 317 319 320 323 325 323 324 323 321 318 314 311 313 317 319 324 325 325 325 323 312 320 307 306 307 309 312 313 315 316 318 320 322 323
322 320 319 318 317 315 315 314 313 316 318 318 321 324 323 322 324 323 322 319 315 312 311 317 318 323 325 326 322 325 324 315 306 305 305 307 309 311 312 313 314 316 318
323 321 320 318 316 315 315 316 313 313 315 317 317 321 322 322 321 322 322 323 321 318 313 318 318 322 324 321 321 324 325 313 308 305 303 304 305 307 309 309 310 311 313
323 322 321 318 315 315 314 313 313 313 314 318 319 317 318 321 317 321 321 321 318 315 311 313 319 319 321 323 323 324 322 320 315 304 303 302 302 303 304 305 306 308 309
322 323 323 319 318 316 315 313 313 314 315 317 318 316 316 317 318 316 317 318 316 315 312 310 314 317 322 323 323 322 324 324 326 314 305 304 303 302 302 302 302 303 304
324 324 324 322 321 320 318 318 318 318 319 319 318 314 315 316 317 317 316 314 316 317 318 318 319 321 322 324 323 325 326 326 324 314 305 302 303 303 302 302 301 301 302
323 324 324 325 324 323 323 324 323 324 323 320 319 318 317 317 319 321 323 324 323 324 323 319 320 320 322 324 324 322 322 325 325 323 316 311 310 306 303 303 302 301 301
322 322 321 321 322 322 320 321 321 320 319 319 320 320 321 318 311 314 322 324 324 323 322 320 318 320 320 320 320 322 321 323 324 324 321 323 324 325 322 304 307 302 300
318 321 321 322 321 302 290 291 301 321 320 320 320 322 323 311 312 301 300 302 312 319 317 316 316 314 318 320 321 321 321 315 310 320 317 318 325 323 308 296 294 295 297
305 301 300 296 292 291 289 289 289 306 317 320 321 320 319 318 310 320 305 298 299 297 297 314 315 315 314 315 315 314 314 314 313 318 313 312 297 287 287 289 291 293 293
295 293 293 294 291 288 287 288 288 300 305 309 305 296 298 301 296 294 306 313 311 310 308 307 308 301 290 288 291 296 297 299 302 288 290 291 286 281 283 285 288 288 288
291 289 289 288 288 286 287 287 292 300 296 291 288 287 289 288 287 288 295 301 304 298 287 287 286 285 284 284 284 292 292 289 294 288 286 287 284 281 281 281 283 286 286
289 288 287 287 286 287 285 286 293 296 290 287 284 284 284 285 285 286 290 292 293 286 285 284 281 281 280 280 280 281 281 286 288 286 280 283 284 282 278 281 282 284 284

GFSMA_sfc_thetae_099.txt.gz
Theta_e
341 341 341 342 341 340 340 338 333 333 330 332 336 333 332 331 330 331 330 329 330 332 330 331 330 331 330 328 327 325 324 324 324 324 323 324 324 323 323 322 321 321 320
341 340 339 339 340 339 339 333 332 331 330 331 334 332 330 329 329 330 329 327 327 330 331 331 331 331 330 328 326 325 324 324 324 323 323 323 323 322 322 321 320 320 319
339 338 340 339 338 339 336 335 332 330 329 333 331 330 329 329 327 327 328 327 327 326 328 330 331 330 329 328 327 325 324 324 324 323 322 322 322 322 321 320 319 319 318
337 334 335 336 339 337 336 332 332 328 328 331 328 328 327 326 326 327 326 327 327 326 326 328 330 330 329 328 326 324 324 324 323 323 322 322 322 321 321 320 319 319 318
338 338 336 336 338 333 333 330 331 328 326 328 326 326 326 323 325 324 326 326 328 327 326 326 326 326 328 328 325 325 326 325 324 324 323 322 321 321 321 320 320 319 317
336 336 336 332 332 330 330 327 328 327 328 326 323 324 325 327 327 326 325 325 326 327 327 328 327 325 324 327 327 325 326 326 324 324 323 323 322 321 320 320 320 319 318
336 334 330 327 326 324 324 326 328 324 324 329 323 323 324 327 325 325 326 325 326 325 326 325 326 325 324 324 326 326 326 326 326 325 324 323 322 322 321 319 319 319 319
335 331 328 326 324 323 322 323 324 324 327 327 322 319 314 317 322 323 324 324 328 324 324 325 325 325 325 324 323 325 326 327 327 326 325 325 324 324 322 320 320 319 319
334 329 326 325 323 323 321 322 324 323 322 326 325 320 313 311 316 321 323 323 325 323 323 324 326 325 327 326 324 322 320 321 327 329 328 326 325 325 324 323 322 321 320
325 325 325 325 323 322 321 323 326 324 325 322 325 324 324 321 314 313 321 321 323 322 325 323 324 325 325 325 324 319 315 314 318 325 329 329 327 326 326 325 324 324 323
325 323 323 323 322 322 322 323 324 326 327 324 323 322 324 323 323 318 313 316 322 323 323 324 324 324 324 326 327 322 312 312 313 319 323 327 329 329 327 327 326 326 325
322 322 324 322 322 322 323 324 328 327 326 325 325 326 322 320 318 318 316 318 318 321 323 324 325 325 326 326 323 316 312 309 310 315 318 321 324 326 328 328 329 328 327
321 321 321 321 322 323 323 324 324 324 327 326 325 324 323 322 323 321 316 312 316 319 321 326 326 326 325 326 325 315 313 307 308 311 314 316 319 320 322 324 325 327 328
322 321 320 319 319 321 322 321 320 319 320 320 320 321 321 322 323 323 321 317 313 314 319 322 325 326 326 326 324 313 322 308 307 307 309 312 314 315 316 318 320 321 323
324 323 320 317 318 318 318 318 318 318 319 319 321 322 320 321 321 324 323 322 317 311 311 319 319 327 328 328 324 328 327 316 307 306 306 308 310 312 312 313 314 315 317
324 322 321 318 317 318 319 318 317 318 317 319 317 321 321 321 321 321 323 323 322 318 313 317 318 319 324 323 323 327 327 315 308 305 304 305 306 308 309 310 311 311 313
325 322 320 319 316 315 315 314 315 315 315 316 317 319 317 322 322 322 322 322 321 320 314 318 320 319 317 318 320 323 325 326 325 305 303 303 303 304 305 306 306 308 309
326 325 323 319 317 315 315 314 314 313 312 312 314 314 315 315 317 322 321 320 320 319 317 316 318 315 318 318 320 319 320 323 325 315 305 304 304 303 302 302 302 303 304
324 325 324 320 318 317 316 316 315 315 316 316 315 318 319 318 318 317 320 320 320 318 318 315 314 318 320 323 323 325 325 326 325 316 305 303 303 302 302 301 301 301 301
324 324 325 324 322 321 319 317 316 316 318 320 321 321 322 319 314 316 315 316 318 318 317 315 317 319 321 324 324 321 321 324 324 325 318 312 308 304 302 302 302 302 301
324 325 325 325 324 322 307 308 318 318 320 318 322 322 320 315 307 310 315 316 319 318 318 316 316 319 320 321 320 323 321 323 324 326 324 326 326 325 302 295 295 296 296
316 315 309 317 300 295 289 290 295 319 321 320 319 320 320 309 309 301 301 302 309 319 318 318 318 317 319 321 322 321 320 317 313 321 318 317 313 290 290 291 292 293 294
299 299 295 293 290 290 288 289 289 307 319 316 307 309 312 302 295 299 300 297 298 296 292 308 311 312 312 297 297 307 311 311 310 298 300 302 289 285 286 288 290 290 290
291 292 291 290 288 287 287 288 289 302 296 291 290 291 292 291 288 290 296 302 301 288 290 291 288 285 284 285 287 293 294 295 298 290 290 291 286 283 284 285 288 288 288
288 287 289 289 287 286 287 288 297 294 289 286 286 286 287 286 286 288 297 300 290 285 285 285 284 283 283 283 283 290 286 287 290 286 282 285 285 283 282 281 284 286 286
287 287 286 286 287 285 286 287 294 292 287 285 284 284 284 284 285 286 289 292 283 282 281 281 281 281 281 281 282 281 281 284 285 285 281 282 284 283 279 282 284 285 285

GFSMA_sfc_thetae_102.txt.gz
Theta_e
338 337 336 336 335 335 333 332 331 331 330 330 332 331 331 330 329 328 329 330 331 332 330 330 330 331 331 330 328 327 326 325 324 325 325 324 325 325 324 323 323 322 321
337 336 334 334 336 334 334 333 332 330 328 330 330 330 329 329 329 327 327 327 328 330 330 330 331 331 330 329 327 326 325 325 324 325 324 325 325 324 324 322 321 321 320
339 336 334 334 335 334 334 332 330 330 328 329 329 329 328 325 325 326 325 325 325 326 328 331 332 332 330 328 326 325 325 326 324 323 323 324 324 323 323 321 320 320 319
337 336 334 334 333 334 333 330 327 327 327 327 327 327 324 324 322 324 325 324 323 325 326 328 330 330 330 328 327 325 324 324 323 323 322 323 323 323 322 321 320 320 319
336 335 333 333 332 332 331 330 328 325 325 325 326 326 323 320 321 324 323 323 323 323 323 326 326 327 328 329 327 325 325 325 324 324 323 323 322 322 322 321 320 320 319
336 335 333 332 331 331 330 329 327 327 326 325 327 325 320 319 319 319 322 324 323 323 322 323 323 323 324 328 327 325 325 325 324 324 324 324 323 322 322 322 321 320 319
333 333 331 330 331 329 328 329 327 325 323 325 321 320 321 322 320 320 320 323 323 323 323 324 323 322 322 325 326 327 326 327 326 325 325 324 324 324 323 321 321 321 321
333 332 330 328 329 327 327 327 325 323 323 324 319 315 311 315 318 320 319 320 322 322 323 323 323 322 321 321 320 326 325 327 327 326 326 326 325 325 324 321 321 321 321
332 331 329 327 326 325 324 324 324 322 320 322 322 316 311 308 313 318 319 318 318 321 320 321 321 322 320 320 320 321 320 321 326 329 328 327 326 326 325 324 323 322 321
331 330 328 327 325 325 323 324 325 323 322 318 321 321 318 317 311 309 317 318 319 320 319 320 320 320 320 321 320 317 315 314 318 325 328 328 328 327 326 325 325 324 324
327 325 325 325 323 324 323 323 323 323 323 320 319 318 317 318 316 312 309 312 316 318 317 318 318 317 320 320 320 318 313 311 313 319 324 327 329 328 327 327 326 326 326
325 323 323 323 325 323 322 322 323 323 323 322 321 320 318 315 314 313 311 312 311 314 318 317 317 318 318 319 320 316 311 310 311 315 319 322 325 327 329 329 328 328 327
320 321 322 321 321 322 322 324 324 323 323 322 321 320 320 319 318 317 314 313 313 315 317 318 319 319 320 319 320 314 312 307 308 311 314 317 319 321 323 326 328 329 329
320 321 322 322 322 322 323 323 324 323 323 322 321 320 319 318 319 317 316 311 308 310 315 315 318 319 320 320 319 313 317 307 306 307 310 312 314 315 316 318 320 322 324
322 321 321 320 320 322 321 320 318 318 319 319 319 319 318 319 318 319 318 318 313 307 309 314 315 320 321 322 320 320 320 313 307 306 306 308 310 312 313 314 315 317 318
322 320 319 319 319 319 319 319 318 318 318 318 319 319 318 317 318 318 318 318 317 313 307 312 314 317 321 323 321 321 321 314 308 304 304 304 306 308 309 310 311 312 313
323 321 319 318 317 318 318 318 318 318 317 317 317 317 318 318 316 317 317 317 316 315 311 312 314 316 316 315 318 318 320 322 321 306 304 304 304 304 305 306 307 308 309
322 321 320 318 317 317 317 317 316 316 316 316 316 316 316 318 316 317 317 316 315 316 313 310 313 313 312 313 314 316 317 319 319 313 306 305 304 303 302 303 303 303 304
323 321 320 318 316 316 315 315 315 313 314 315 314 314 314 313 312 313 314 315 315 316 313 311 311 313 313 313 314 315 316 316 318 313 306 303 303 303 303 302 302 302 301
323 322 321 319 318 316 316 316 315 315 313 313 314 314 314 314 313 312 313 313 314 313 313 311 311 312 313 315 316 314 314 318 319 322 315 310 306 302 299 298 296 296 297
322 322 322 320 318 312 300 307 315 315 315 314 315 316 315 313 308 311 314 314 313 311 312 312 311 312 313 314 314 317 317 317 317 319 319 321 311 299 294 293 293 294 295
307 304 304 300 296 292 289 290 296 314 315 316 317 318 318 306 305 298 297 297 304 312 312 312 313 313 314 315 310 310 310 309 308 300 304 306 296 289 289 290 291 291 292
296 294 293 291 289 289 289 290 290 307 301 298 298 300 302 295 292 297 297 294 290 290 288 303 306 304 297 289 291 298 304 302 301 294 298 297 289 285 286 288 289 289 289
291 290 289 288 288 288 288 290 292 294 290 288 288 290 289 288 288 289 295 292 287 286 287 288 286 284 284 284 286 291 292 293 294 285 285 288 286 282 284 285 288 288 288
287 287 287 286 286 286 288 291 290 289 286 285 286 286 286 286 286 289 297 288 284 283 285 285 285 284 284 284 284 289 285 286 287 283 282 283 284 282 282 282 284 286 286
285 286 284 285 285 285 287 290 290 287 285 284 284 284 285 285 285 287 288 285 281 281 281 281 281 282 283 283 283 282 282 283 282 282 281 282 283 283 279 282 283 284 284

GFSMA_sfc_thetae_105.txt.gz
Theta_e
333 332 331 334 332 332 330 329 328 328 326 327 329 331 330 330 329 329 330 330 331 333 332 331 330 331 330 330 329 328 326 326 325 325 325 325 326 326 325 324 323 322 322
334 333 332 333 333 331 330 330 329 327 326 326 327 330 330 329 328 328 328 328 328 330 331 330 330 332 330 330 329 327 326 325 325 326 325 324 326 325 324 323 322 321 321
333 332 331 330 331 330 329 329 328 327 325 327 327 329 329 329 327 327 327 326 326 326 327 330 331 331 329 330 328 326 325 325 324 325 325 324 324 323 323 322 321 321 320
332 331 330 330 331 329 330 328 329 326 324 325 326 327 328 327 326 326 325 325 323 323 325 328 330 331 331 329 327 326 325 325 325 324 323 324 324 323 322 322 321 320 320
332 330 330 331 330 328 329 328 326 327 323 324 326 326 326 324 324 325 323 323 322 321 322 326 327 327 328 329 327 327 326 326 325 323 323 324 324 323 323 322 321 321 320
333 330 328 328 327 328 327 328 325 325 324 323 326 326 325 322 322 321 321 322 322 321 321 322 325 323 325 327 329 326 326 326 325 324 324 323 323 323 323 322 322 321 320
332 331 329 327 326 326 326 326 325 322 321 323 322 321 320 320 317 320 320 320 320 321 321 322 322 321 322 325 327 326 326 327 326 325 325 324 325 324 324 322 322 322 321
331 330 328 327 326 327 326 326 325 323 323 324 320 317 312 315 317 317 319 320 319 321 321 322 322 321 320 321 320 326 327 327 327 326 327 326 326 325 324 323 322 322 322
329 328 326 326 327 328 327 327 326 324 320 323 322 316 310 308 311 315 316 318 320 320 321 321 321 321 320 320 321 321 320 321 327 329 329 327 326 326 326 325 324 323 322
326 328 326 325 327 327 326 326 326 324 323 320 321 322 317 316 310 307 314 315 317 319 320 321 320 320 320 320 319 317 315 314 318 326 329 329 328 327 326 326 325 325 324
326 326 328 326 325 325 325 325 325 324 323 321 320 318 316 316 315 311 307 310 313 316 317 318 318 318 319 320 318 316 313 312 313 319 324 327 329 328 327 327 327 326 326
322 324 324 324 325 324 324 324 325 324 322 322 322 319 317 314 313 311 310 310 311 313 316 315 316 318 317 318 319 315 311 309 311 314 319 322 325 327 329 328 328 328 327
321 321 321 321 321 323 323 324 324 323 323 321 321 319 320 318 318 315 313 311 310 312 313 316 315 316 318 316 317 314 312 308 308 311 314 317 319 321 323 326 328 329 329
320 320 320 320 321 323 322 323 323 322 323 322 321 320 320 319 319 317 315 311 307 310 312 313 317 316 317 318 317 311 315 306 307 307 310 312 314 315 317 319 321 323 325
319 320 320 319 321 321 322 322 322 322 322 322 321 321 320 318 318 315 314 315 309 304 309 312 313 318 318 318 316 316 316 310 305 305 305 307 310 312 313 314 315 316 318
320 320 320 319 320 320 321 320 320 322 321 321 321 320 319 317 315 315 315 316 316 313 308 311 314 315 317 319 318 318 319 312 307 305 304 304 306 308 310 311 311 312 314
320 320 319 318 318 318 318 319 318 319 319 319 319 319 318 317 316 316 315 316 315 315 311 313 314 315 314 316 318 319 319 318 318 306 305 305 303 304 305 306 307 308 309
321 320 319 318 317 317 317 317 317 318 317 317 317 317 317 318 315 315 315 315 315 316 313 311 312 313 313 314 314 315 316 319 319 312 305 304 304 303 302 302 302 302 303
320 321 319 318 317 317 317 317 317 317 317 317 317 316 317 317 315 314 315 315 314 315 313 311 310 312 312 313 313 313 314 314 316 311 305 304 303 300 299 297 298 298 299
320 320 319 318 317 317 317 317 316 316 316 316 317 316 316 315 315 314 314 312 313 313 311 309 309 309 309 311 310 311 311 313 314 318 309 299 296 295 295 294 295 295 296
321 320 319 318 316 313 307 315 315 315 313 313 314 314 315 313 306 309 314 313 311 310 307 307 306 308 308 310 311 313 314 316 312 307 314 305 297 294 292 292 293 293 293
302 300 299 298 296 293 290 291 302 315 314 314 313 314 315 303 301 294 295 293 299 311 308 308 308 308 309 312 305 308 308 306 304 295 302 296 292 288 289 290 291 291 291
293 291 291 290 290 290 290 291 292 305 301 298 298 302 299 294 294 299 291 289 288 288 286 299 306 302 295 289 290 296 300 301 299 289 294 292 287 284 286 288 290 290 290
288 287 287 288 289 291 290 290 290 290 288 288 288 289 289 289 289 294 290 287 286 286 286 287 285 284 284 285 286 291 292 293 288 285 285 286 285 282 284 285 288 288 288
285 285 285 285 286 288 289 289 288 287 285 284 285 286 286 286 288 292 289 285 283 283 286 286 286 286 285 285 286 289 285 287 285 281 282 284 284 281 282 282 285 287 286
285 284 284 284 285 285 288 289 288 287 284 284 284 284 285 285 286 288 288 286 282 281 282 282 283 283 284 283 283 282 281 280 283 280 281 282 283 282 279 282 283 283 283

GFSMA_sfc_thetae_108.txt.gz
Theta_e
331 332 332 333 333 330 329 327 325 325 325 325 326 328 328 330 330 331 331 330 332 335 334 333 331 330 329 331 330 327 326 326 325 324 324 323 323 323 323 324 323 323 323
331 331 331 331 331 331 329 328 326 325 324 325 324 328 329 330 329 329 330 329 329 331 332 332 331 330 330 329 329 327 326 326 326 325 324 325 324 322 324 323 322 322 322
332 330 330 329 329 331 330 327 325 325 323 325 324 326 328 328 328 328 328 328 327 326 328 330 331 332 330 330 328 328 327 326 325 326 325 324 325 324 323 323 322 321 321
332 330 329 329 330 328 328 327 327 327 325 325 324 324 325 327 327 328 328 326 326 325 325 327 329 331 330 330 328 328 327 324 324 326 325 324 325 324 323 322 322 321 320
331 331 330 329 329 328 327 327 328 328 325 324 324 323 325 325 325 328 326 325 323 320 321 325 326 327 328 329 328 328 326 326 324 326 325 325 325 324 323 322 321 321 320
331 330 329 328 328 327 328 328 328 327 324 324 324 324 323 323 324 325 324 324 322 321 320 322 325 324 324 328 329 327 326 327 326 325 324 324 325 324 323 322 322 321 321
331 330 328 327 326 326 327 327 326 324 322 324 322 321 321 320 320 322 323 322 321 320 319 321 322 324 324 325 327 327 327 327 327 325 324 324 324 325 325 323 323 322 321
331 331 328 327 325 324 324 325 325 322 322 324 320 319 314 315 317 320 319 319 319 320 320 320 321 321 321 322 321 326 327 326 327 327 327 326 325 325 324 323 323 323 322
330 330 329 328 325 326 325 326 325 323 320 323 322 317 310 309 313 315 317 318 317 318 319 320 320 321 320 320 321 321 320 321 327 329 328 327 326 326 326 325 324 323 323
328 328 326 326 325 327 327 327 327 325 321 319 321 321 316 315 310 309 314 316 318 318 318 319 319 320 320 319 319 317 315 314 318 326 328 328 328 327 327 327 326 325 324
327 328 325 325 325 327 327 326 325 325 323 322 321 319 316 315 314 313 309 311 314 319 318 319 319 319 319 319 318 317 313 312 313 319 325 328 329 328 327 327 327 327 326
326 327 326 326 326 325 324 325 325 325 324 323 322 320 317 314 312 312 309 310 312 312 315 318 318 318 318 318 319 315 311 310 311 314 318 322 325 328 328 328 328 328 328
324 325 326 325 324 325 324 325 324 325 324 323 322 320 319 317 317 315 313 311 310 311 313 314 316 318 317 317 318 313 311 307 308 311 314 317 319 322 324 326 328 329 329
323 323 323 322 321 322 323 324 323 324 324 322 322 320 319 318 318 317 315 312 308 309 311 311 315 315 317 318 317 311 316 306 306 307 309 312 314 315 317 319 321 323 325
321 319 321 320 319 320 321 322 322 322 322 322 321 321 319 319 319 318 316 315 311 306 308 311 312 316 317 318 316 315 316 310 306 305 306 307 310 312 313 314 315 317 319
320 318 318 318 319 320 320 321 321 322 321 322 321 320 319 319 317 316 315 316 315 310 306 313 313 316 318 318 315 316 316 310 304 303 303 304 306 308 309 310 311 312 314
319 317 318 319 319 319 320 319 320 321 320 320 321 320 319 319 317 315 315 315 314 314 310 312 314 315 316 316 317 317 318 318 316 304 302 302 302 303 304 306 307 307 308
319 318 318 318 318 318 318 318 318 319 320 319 319 319 318 318 317 316 315 314 314 315 312 310 312 313 313 315 317 315 317 319 318 311 306 304 304 303 301 300 300 300 301
319 319 319 318 317 317 317 317 318 318 318 319 319 318 318 318 316 316 316 315 314 315 314 311 311 313 314 313 313 313 312 313 315 311 304 296 297 297 296 296 296 297 297
319 319 319 319 318 318 317 317 317 317 317 316 317 318 318 318 317 315 315 314 314 313 313 312 312 311 311 312 311 310 308 310 312 308 297 295 294 294 294 294 295 295 295
320 320 318 318 316 315 304 313 317 316 316 316 316 316 317 314 307 311 316 315 312 311 311 311 308 306 306 307 306 310 310 311 306 305 302 297 294 292 292 292 293 293 293
300 299 298 297 296 295 290 292 298 315 314 314 313 314 315 304 298 295 294 291 302 312 310 308 308 304 305 307 304 308 309 309 305 294 301 290 291 288 289 290 291 291 291
294 291 291 293 292 292 291 292 294 303 298 297 298 303 298 295 296 293 289 289 288 287 287 304 307 300 298 292 292 296 300 301 297 287 292 286 286 284 287 289 290 289 289
287 287 288 289 289 289 289 289 289 290 289 288 289 290 291 291 291 293 290 287 286 286 287 287 287 285 285 286 289 292 293 291 287 285 286 285 284 282 284 286 288 288 287
285 285 286 286 286 287 288 288 288 287 285 285 286 287 288 288 290 291 288 285 284 283 286 287 286 286 285 286 287 289 286 287 285 282 283 285 283 281 282 282 285 287 286
284 284 284 284 286 285 287 288 287 286 284 284 284 285 286 287 288 287 286 284 281 281 282 283 283 283 283 283 282 283 284 285 283 281 282 283 283 281 278 282 283 283 280

GFSMA_sfc_thetae_111.txt.gz
Theta_e
332 334 335 334 333 331 328 325 324 324 323 323 324 326 327 329 330 331 331 330 333 337 336 335 333 331 330 330 330 328 326 327 325 325 324 325 325 323 322 323 324 324 323
332 333 332 332 332 329 326 326 324 322 322 323 325 327 327 327 329 330 331 330 329 332 335 334 332 331 330 330 330 327 325 325 325 324 323 323 322 322 324 324 323 323 322
330 331 331 330 330 329 325 324 322 322 321 323 322 324 326 326 327 330 329 329 329 327 329 332 331 331 330 331 329 327 326 325 326 325 324 323 323 322 323 323 322 322 322
330 329 329 329 328 328 327 324 324 324 325 323 320 322 324 325 326 328 328 328 327 327 326 328 329 331 330 331 328 327 327 325 326 326 326 325 323 323 324 323 322 322 322
330 329 328 328 327 327 327 325 326 324 324 323 324 323 323 322 325 328 327 327 326 323 322 325 326 327 328 330 329 328 328 325 325 327 326 325 323 324 323 323 322 322 321
330 329 328 326 327 326 325 325 324 326 325 323 325 324 324 321 324 326 326 327 325 321 320 320 322 324 324 328 329 329 328 327 326 326 325 326 324 324 324 323 322 322 321
329 329 328 326 326 326 326 326 326 326 324 324 321 321 322 321 323 324 325 325 323 321 320 320 321 323 324 325 328 329 328 327 328 326 326 324 326 326 325 323 322 322 322
330 329 328 326 325 325 326 326 325 323 323 323 319 319 313 315 319 321 322 322 321 321 320 320 320 320 323 323 323 327 328 328 328 327 326 323 325 325 325 324 324 323 322
331 330 328 328 326 327 326 326 325 323 321 322 323 317 311 310 314 317 318 319 319 319 319 320 319 320 319 320 321 322 320 321 327 328 324 326 326 326 325 325 324 323 323
329 331 330 328 327 327 327 327 326 325 323 320 321 323 317 315 311 308 316 317 318 318 317 318 319 319 318 319 319 317 315 314 318 325 328 328 327 327 326 326 326 325 324
329 329 329 329 328 328 328 327 326 325 324 323 321 320 317 316 316 312 310 312 316 317 318 318 318 319 319 318 317 316 313 312 313 319 325 327 328 328 327 327 327 326 326
328 329 328 327 327 327 326 327 327 326 325 323 323 322 320 315 313 312 311 312 313 315 318 318 318 318 318 318 318 315 311 310 311 315 319 323 326 328 328 328 328 328 328
323 325 327 326 326 326 327 326 324 324 324 323 322 322 322 319 318 316 314 313 311 311 313 316 318 318 318 318 318 313 312 308 309 311 314 317 319 322 325 327 328 328 328
324 323 325 326 326 326 324 323 323 323 324 323 323 323 321 319 318 317 315 312 308 310 310 312 316 317 318 317 317 311 316 307 306 308 310 312 314 316 317 320 322 324 326
323 323 325 324 324 323 323 323 322 322 323 323 322 323 321 319 319 318 316 316 312 307 308 311 311 316 317 317 315 316 316 311 306 305 305 307 310 312 313 314 315 317 319
322 322 322 321 320 320 320 320 320 321 321 322 322 320 319 319 318 317 317 315 314 311 307 313 313 314 317 316 315 316 316 311 305 303 303 304 306 308 309 310 311 312 313
321 320 319 319 319 318 319 318 319 319 319 320 321 320 319 319 318 317 316 316 314 313 309 311 313 315 315 316 316 315 315 314 314 303 302 302 302 303 303 303 303 305 307
321 321 319 318 318 317 319 318 317 319 319 319 320 319 318 318 317 317 316 314 315 314 312 309 312 312 314 316 316 316 317 318 318 310 303 303 302 302 300 298 298 299 300
320 320 319 318 318 318 317 318 318 317 319 319 319 319 318 318 316 316 315 314 314 314 313 311 311 313 314 313 313 314 315 316 316 299 296 295 296 296 296 296 297 297 297
320 319 319 318 317 317 317 317 317 317 317 319 319 319 319 318 317 316 316 315 315 313 313 313 312 311 312 313 312 311 310 311 309 299 295 294 294 295 295 295 295 295 295
319 319 318 318 318 317 312 317 317 316 316 315 316 316 318 315 308 312 316 316 315 314 313 312 311 309 309 308 309 310 310 310 304 303 298 295 293 292 292 293 293 293 293
295 302 303 303 300 296 291 292 301 316 316 315 315 315 315 305 304 299 299 301 310 313 312 312 311 309 308 309 308 309 309 307 303 294 294 288 290 289 290 290 291 291 291
287 288 290 293 292 291 291 293 294 306 304 301 302 309 301 298 298 295 290 289 288 288 288 308 310 308 305 300 301 300 302 304 298 289 294 285 286 285 288 289 290 289 289
286 285 286 287 288 288 289 290 290 291 289 289 289 291 293 294 294 293 290 287 286 286 286 288 288 286 286 288 292 294 296 289 286 285 287 283 284 282 284 285 288 288 287
284 285 285 285 286 286 288 288 288 287 286 285 286 288 289 290 290 291 288 285 284 284 286 286 286 286 286 286 288 290 287 287 284 283 283 285 282 281 282 282 285 286 286
283 284 283 284 285 285 287 287 287 286 284 284 284 285 287 287 287 287 286 284 281 282 283 282 282 282 282 283 282 282 285 286 283 282 282 284 282 281 278 282 282 282 281

GFSMA_sfc_thetae_117.txt.gz
Theta_e
339 342 341 340 339 340 339 338 336 335 335 338 339 338 337 339 339 340 340 331 333 337 338 338 336 333 331 331 332 331 330 329 327 327 327 327 327 326 325 325 325 325 325
339 338 339 339 339 339 335 337 336 335 334 336 336 337 336 338 339 339 340 337 329 331 335 337 336 334 332 330 331 331 330 329 327 326 326 327 327 326 325 325 322 323 323
337 338 338 338 339 338 334 337 336 336 333 333 334 334 335 336 336 336 337 338 333 328 330 334 334 334 332 331 330 331 329 329 328 327 325 326 326 325 324 324 324 323 322
339 337 336 336 339 334 333 335 332 332 333 332 331 332 333 334 335 336 336 336 337 333 329 330 331 332 332 332 330 328 328 327 328 327 326 325 325 324 324 324 324 323 323
339 337 335 335 335 334 331 332 329 331 329 331 330 331 332 332 332 333 333 334 335 335 332 328 328 328 330 331 331 329 327 328 328 327 326 324 323 323 324 324 324 324 323
338 337 335 334 333 331 329 331 329 331 332 332 327 327 329 330 332 331 331 332 334 334 332 328 329 328 324 329 331 330 328 328 328 327 326 325 324 323 324 324 324 323 323
336 337 333 332 331 330 329 330 329 328 328 332 327 324 326 328 327 328 329 329 331 331 331 327 328 329 327 325 329 331 330 330 329 328 327 327 326 324 324 325 324 323 323
335 335 334 330 330 329 329 328 328 325 326 328 322 321 316 320 323 327 329 328 329 330 327 325 325 328 328 327 327 329 331 330 330 328 328 328 326 324 325 325 325 324 323
336 336 334 333 330 330 328 328 327 328 323 325 326 322 315 313 318 322 325 326 327 326 327 327 323 325 328 327 326 325 321 323 329 330 329 328 327 326 325 325 325 325 324
335 336 334 333 332 331 330 328 328 329 328 324 324 325 325 321 315 313 319 323 326 324 325 326 323 323 326 326 325 321 316 315 320 327 329 328 328 327 325 326 325 325 325
334 335 334 332 332 331 331 330 329 328 330 329 325 323 325 323 322 315 312 316 321 324 325 324 324 323 325 326 327 323 314 313 314 321 326 328 328 327 325 325 326 325 325
332 334 334 333 333 333 333 333 331 330 330 329 326 325 323 320 317 316 314 315 316 319 323 322 322 322 323 325 324 317 312 310 311 315 320 324 326 326 326 326 326 326 326
330 332 331 331 332 332 332 333 332 331 329 327 326 325 325 324 326 322 318 316 314 317 318 321 321 322 322 325 326 316 312 308 309 312 314 318 320 322 325 326 326 327 327
331 332 331 332 331 330 330 331 330 329 329 329 328 326 326 329 327 323 319 317 312 313 315 319 321 324 321 324 324 311 323 307 307 308 310 313 314 316 318 320 323 325 326
331 331 331 330 329 330 329 329 329 328 327 327 327 326 326 326 326 325 324 320 316 309 309 318 316 320 321 321 321 325 324 312 306 306 307 309 311 313 313 315 316 319 321
330 330 329 329 328 328 327 327 327 328 326 326 326 325 324 326 326 324 323 321 319 316 311 317 316 318 320 320 320 324 324 313 305 304 304 305 306 309 310 310 311 313 315
326 326 327 327 327 325 325 325 326 326 325 324 324 324 323 325 323 323 322 322 319 318 313 314 317 317 318 318 318 321 323 322 322 303 302 302 302 303 304 305 306 308 309
326 325 325 324 325 326 326 324 323 323 323 321 321 322 321 321 322 322 321 318 317 318 315 310 313 314 315 317 318 318 320 321 322 303 302 301 301 300 301 301 301 302 302
305 319 324 323 323 323 322 322 323 322 321 321 320 319 319 321 320 321 318 317 316 316 315 312 312 314 315 316 316 318 320 321 308 300 297 297 298 298 298 298 298 298 298
297 299 301 316 321 320 320 320 321 320 320 320 322 320 322 321 320 318 317 318 316 314 314 313 312 312 314 314 316 314 315 311 305 301 297 297 297 296 296 296 296 296 296
294 295 294 294 295 294 293 294 306 318 319 319 320 320 321 318 309 313 318 317 316 314 313 312 311 311 312 310 312 315 314 308 302 299 295 295 295 295 295 295 295 295 294
290 291 291 291 290 291 289 290 293 307 318 317 316 318 320 308 308 300 300 303 313 315 314 312 312 311 311 313 313 312 311 304 300 298 294 290 293 292 293 293 293 293 293
287 287 288 288 288 288 289 289 291 292 297 305 306 309 313 306 305 301 291 290 289 289 291 314 312 313 312 313 313 311 311 309 306 296 291 285 289 287 289 290 290 290 290
285 285 285 286 286 286 288 288 288 288 287 287 289 291 294 297 296 297 294 290 287 287 288 289 292 291 290 295 308 312 312 300 289 288 291 284 285 284 287 288 289 289 288
284 283 283 284 284 284 287 287 288 288 287 285 285 286 288 289 289 292 290 286 284 284 287 287 287 287 287 287 288 296 292 293 286 286 286 284 283 283 284 284 286 287 285
285 285 284 284 284 284 285 286 286 286 285 285 284 284 285 286 286 287 288 287 283 284 283 283 283 282 283 283 283 285 288 293 286 285 285 283 282 282 279 282 282 283 282

GFSMA_sfc_thetae_120.txt.gz
Theta_e
346 346 345 343 343 342 343 342 341 340 341 341 341 341 341 342 342 344 342 331 333 336 339 339 337 335 332 333 334 333 332 330 330 328 328 328 329 328 327 327 326 326 326
345 346 344 343 342 342 343 342 341 339 338 339 339 340 339 340 341 341 342 341 330 333 336 337 336 336 333 331 332 331 331 331 329 328 328 328 327 327 326 326 326 325 324
344 346 344 344 342 342 343 343 341 340 338 338 338 339 339 340 340 340 341 340 338 328 331 334 335 334 334 331 331 331 331 331 330 328 328 328 327 326 325 325 324 325 324
344 343 341 340 344 341 340 340 339 338 337 337 336 336 336 337 338 338 340 340 340 337 330 330 332 332 334 333 331 329 329 330 329 329 328 328 327 326 325 324 324 325 322
342 341 340 341 344 341 338 339 338 338 335 335 335 335 336 335 335 334 336 338 339 339 337 329 328 328 330 332 333 330 330 328 328 328 327 326 326 325 324 324 325 324 323
340 340 340 340 340 339 337 335 335 338 336 335 332 332 334 334 335 335 335 336 337 338 337 336 332 329 326 329 332 332 330 329 328 328 327 326 326 325 325 325 324 324 324
340 340 338 338 338 336 334 334 334 334 334 336 331 330 331 332 331 331 333 335 334 335 335 336 335 331 328 326 330 333 331 329 329 329 328 328 326 325 325 324 325 325 323
339 339 338 337 335 335 334 334 331 331 332 334 329 327 323 327 328 331 331 331 334 335 333 334 333 330 328 328 329 330 331 331 329 329 330 328 326 326 325 324 324 325 324
338 338 339 336 335 334 334 333 331 331 328 330 332 329 322 319 324 329 331 331 333 334 333 333 331 330 328 327 327 326 322 324 329 331 330 328 328 327 325 325 325 325 326
340 337 338 337 336 334 334 333 333 331 332 325 329 332 332 328 320 319 324 330 330 330 332 331 330 329 331 327 325 322 317 316 320 328 329 329 329 328 326 325 325 325 325
340 339 338 336 335 336 335 335 331 331 332 331 330 328 330 329 329 323 318 320 325 329 332 331 330 331 330 327 328 325 314 313 315 323 327 328 329 328 327 326 326 326 326
335 336 340 338 337 335 334 334 333 333 332 332 331 331 329 326 325 323 321 321 321 323 327 331 331 329 331 325 324 317 313 311 312 316 321 325 326 327 327 327 326 326 326
331 333 337 337 336 336 335 335 333 334 334 334 334 334 333 331 327 324 322 322 322 325 325 326 328 326 327 324 325 317 312 309 309 313 316 319 322 323 325 325 325 326 326
334 335 335 336 336 336 335 339 337 337 337 336 333 332 331 330 329 327 325 324 320 316 319 322 324 325 326 326 324 313 322 308 307 308 311 314 316 318 319 321 322 323 324
334 335 333 332 333 334 334 335 336 332 334 335 336 335 331 331 330 330 331 328 320 313 312 320 320 324 325 327 322 323 323 313 307 306 307 309 312 313 314 315 317 319 321
329 333 332 331 332 332 331 331 331 331 329 330 331 331 330 328 328 329 330 328 325 319 313 318 319 322 323 324 321 323 324 315 306 304 305 305 307 310 311 311 312 313 315
314 329 330 330 330 329 327 326 327 328 327 328 329 329 329 329 326 329 328 328 324 321 315 318 319 322 320 320 321 321 322 324 324 303 303 303 304 305 306 307 307 309 310
308 317 327 329 329 328 327 325 325 326 326 325 327 326 327 326 324 327 326 324 323 323 319 314 316 317 317 320 320 318 320 322 326 308 303 302 302 302 302 302 303 304 305
301 303 304 309 322 325 326 326 325 324 325 325 326 326 326 324 322 324 324 322 326 324 320 316 313 316 316 318 318 318 318 320 312 301 299 300 300 300 300 300 300 301 301
296 297 297 297 297 297 297 298 306 321 323 323 324 326 324 322 323 324 322 325 323 319 317 315 313 313 315 316 316 314 314 310 307 305 299 299 299 300 298 297 297 298 298
293 293 293 292 293 292 291 292 296 304 317 321 322 321 322 319 310 316 324 323 320 317 315 313 312 312 312 311 311 314 313 308 306 303 299 300 300 300 298 297 297 296 296
290 290 290 289 288 289 289 290 293 303 301 310 316 319 320 309 311 299 300 301 312 316 314 313 312 311 312 312 313 312 311 304 300 301 300 296 298 296 296 297 294 294 294
287 287 288 288 287 287 288 289 289 293 291 291 292 295 298 306 302 314 293 291 290 289 291 315 313 314 312 314 313 312 312 309 309 299 294 287 291 289 291 292 292 292 292
286 285 285 287 286 286 287 287 288 291 289 288 287 288 290 290 291 296 299 293 289 288 288 290 292 291 292 297 313 314 313 302 291 293 293 285 286 285 287 289 290 290 290
287 285 286 285 285 284 286 286 287 288 287 286 286 287 287 287 287 291 292 287 284 284 286 287 286 286 286 286 288 302 296 296 287 287 287 285 284 284 285 285 286 287 287
285 287 285 285 284 285 285 285 285 285 283 282 283 284 285 285 286 286 288 287 283 282 284 284 283 282 282 282 283 284 289 303 286 285 285 284 283 282 279 282 283 283 283

GFSMA_sfc_thetae_123.txt.gz
Theta_e
349 346 347 345 345 344 344 341 343 343 341 342 343 339 340 340 342 341 346 332 334 336 336 338 338 336 335 335 337 335 334 333 331 330 330 329 330 329 328 327 326 324 323
350 348 346 344 344 345 344 343 341 339 340 341 340 340 339 341 341 342 343 338 331 333 337 339 337 337 334 333 335 334 333 333 332 330 330 329 329 328 327 326 326 323 326
351 350 345 345 344 345 344 343 343 341 339 338 338 339 338 340 340 340 341 342 336 328 331 336 336 336 334 333 333 333 332 332 332 331 329 328 328 327 326 325 325 325 324
347 349 345 344 345 343 343 342 341 338 338 337 337 337 337 337 338 338 339 339 341 338 330 331 333 334 334 333 332 331 330 331 331 330 329 328 327 327 326 324 324 325 324
346 345 344 344 348 343 343 341 341 340 336 336 335 338 339 337 337 334 336 338 340 340 339 329 329 329 331 333 333 331 330 330 329 329 329 328 327 327 326 325 325 325 322
344 344 342 342 344 342 338 341 340 340 338 335 332 333 338 336 337 335 335 335 336 338 339 337 334 331 326 330 332 332 331 331 330 329 328 328 328 327 325 325 325 325 323
342 342 341 341 342 341 338 338 339 338 336 339 334 333 334 335 335 335 336 336 335 336 337 339 335 334 330 327 330 332 332 332 331 329 330 328 327 326 325 325 324 324 322
341 342 340 339 339 337 337 338 337 335 337 339 332 329 324 327 331 332 333 333 335 335 334 335 335 333 333 331 329 329 331 332 332 331 330 329 328 326 325 325 325 325 324
340 340 341 339 338 338 335 337 336 335 332 336 336 329 321 319 324 332 330 332 333 334 334 334 333 334 333 332 327 325 322 324 329 331 331 329 328 327 326 325 324 325 325
340 340 340 338 337 336 335 335 337 336 335 328 331 334 336 330 321 319 328 330 331 330 333 333 332 333 332 332 327 322 317 317 321 328 330 330 329 328 327 326 325 325 325
342 339 339 338 336 335 335 336 334 335 336 331 328 330 331 332 332 324 319 324 328 329 332 335 333 333 332 333 329 326 314 314 316 323 327 329 330 328 328 327 326 325 325
340 343 339 339 338 336 334 335 335 335 334 334 331 332 331 328 326 325 323 324 323 326 328 330 334 332 334 332 329 319 314 311 313 318 323 326 327 328 328 327 326 326 326
335 339 341 341 337 336 335 336 334 333 335 332 332 332 335 332 332 328 325 325 322 325 329 329 330 334 333 334 332 317 313 308 310 314 317 321 323 324 325 327 326 326 326
334 337 338 339 339 337 336 335 334 333 335 332 333 337 336 335 335 331 328 324 320 324 325 325 329 331 332 332 328 314 323 307 307 309 312 315 317 319 320 322 323 324 324
327 336 338 336 336 335 335 335 333 336 336 336 337 338 336 336 336 334 332 329 326 318 321 324 323 330 330 326 323 325 327 314 307 306 307 309 312 314 316 317 318 319 321
317 318 335 336 333 332 334 334 333 334 334 333 334 335 335 336 335 335 334 331 327 323 320 324 325 327 328 325 323 325 326 316 306 305 304 305 307 310 311 312 314 315 316
309 312 322 332 332 331 330 330 329 330 330 328 329 330 330 332 331 330 330 331 327 325 321 325 326 328 327 326 325 323 323 323 320 305 304 303 304 305 306 308 308 310 311
304 303 307 307 318 327 329 327 326 327 328 328 328 327 328 328 328 328 328 327 326 326 325 317 323 322 323 324 323 321 321 323 322 308 303 303 303 303 303 303 304 305 305
297 297 298 298 297 297 298 300 303 319 325 326 327 327 327 327 326 327 326 325 326 323 325 320 319 323 322 322 319 320 319 321 319 304 301 300 301 302 302 302 302 302 303
292 293 294 293 294 293 292 293 297 301 307 317 325 325 326 325 324 324 324 324 324 324 325 321 319 316 315 318 318 316 314 317 307 304 299 300 300 300 300 300 299 300 300
290 291 291 290 290 290 290 291 295 301 305 305 309 322 324 321 311 314 322 322 322 321 320 318 315 314 313 313 312 315 314 308 303 301 298 299 300 299 298 298 299 299 298
289 289 289 289 288 288 288 289 292 294 294 293 294 298 301 305 300 300 302 300 310 319 318 315 315 312 312 314 314 314 312 303 300 302 299 295 299 296 296 298 296 295 296
287 286 287 287 286 286 287 288 289 290 289 288 287 289 292 293 293 294 298 292 290 289 288 308 314 313 314 314 314 312 311 307 308 299 295 288 291 289 292 293 293 293 293
287 286 286 286 286 285 286 287 287 288 286 286 285 286 286 288 289 290 296 291 288 287 287 289 289 288 287 289 302 315 313 306 294 297 294 286 287 285 287 291 293 292 292
287 286 286 286 285 285 286 285 288 286 284 284 284 284 285 285 286 289 291 286 285 285 286 286 286 285 285 286 286 299 297 298 287 288 287 286 285 284 285 285 287 289 289
286 288 286 286 285 285 285 285 286 286 285 284 284 283 284 284 285 285 286 286 284 282 283 283 283 283 283 282 283 283 285 299 288 286 286 285 284 283 279 283 284 284 285

GFSMA_sfc_thetae_126.txt.gz
Theta_e
345 343 343 343 342 342 341 338 337 337 338 337 339 338 338 337 338 339 334 333 334 337 335 336 338 338 336 337 337 336 335 335 333 331 330 330 329 328 325 327 327 326 326
345 343 342 342 341 342 340 339 337 337 336 337 335 337 334 337 337 339 336 332 332 334 336 338 338 338 337 336 337 336 335 334 333 333 331 329 328 328 327 327 326 323 323
345 343 342 341 341 341 340 340 338 338 336 336 335 336 336 336 336 337 338 334 330 329 331 336 337 338 337 336 336 336 334 333 333 332 331 329 328 328 326 326 324 323 322
346 344 342 341 342 341 339 338 336 335 334 334 333 334 334 334 335 335 337 336 333 332 329 332 334 336 336 336 334 333 333 333 332 332 330 328 328 327 326 324 322 324 322
345 344 342 341 342 339 338 337 336 334 332 333 333 333 333 333 334 334 334 336 334 333 331 329 329 330 332 334 335 333 333 332 332 332 330 329 328 327 326 325 324 324 322
343 342 342 341 342 338 336 337 335 336 333 331 331 329 332 332 332 331 332 334 336 333 332 331 329 327 327 332 334 334 333 332 331 330 330 329 328 327 326 325 324 323 323
343 340 339 340 340 338 336 336 335 333 332 333 328 328 328 330 330 330 329 330 331 334 332 332 330 330 327 328 331 334 333 332 332 331 331 329 328 327 326 325 325 324 322
341 340 338 338 338 336 336 335 335 332 332 333 326 325 318 323 326 329 328 329 329 330 332 331 331 330 329 327 327 331 333 334 334 331 332 329 328 327 326 325 325 324 322
341 340 338 336 337 335 335 334 333 332 329 331 331 324 316 314 320 326 327 327 327 328 328 329 331 331 331 328 326 325 323 324 330 332 331 330 328 328 326 326 325 325 323
340 339 338 337 335 335 333 334 333 333 331 328 330 330 327 326 317 316 324 326 327 326 326 328 329 331 331 330 326 322 317 317 321 329 331 331 330 329 327 326 326 325 324
339 338 337 336 335 334 334 333 332 332 331 330 328 324 326 326 326 320 314 318 323 324 326 327 328 329 330 330 329 324 316 314 316 322 327 329 330 329 328 327 326 325 325
336 336 336 336 335 333 333 333 332 333 331 331 329 327 325 323 323 321 317 317 318 321 324 327 327 328 328 329 328 320 314 311 313 317 322 326 328 329 328 327 327 326 326
336 334 334 334 334 333 333 333 333 332 331 330 330 328 329 327 327 324 320 318 318 321 321 323 325 328 329 329 328 318 314 309 310 313 317 320 323 325 326 326 327 327 326
333 336 333 334 334 334 333 333 332 332 331 330 328 329 329 330 329 326 323 319 317 317 318 320 325 325 328 328 327 315 323 308 308 309 312 315 318 319 321 322 324 325 325
318 321 330 334 335 333 333 332 331 331 331 330 329 329 329 329 330 328 326 323 318 312 314 319 320 326 326 327 324 324 324 313 307 306 307 310 314 316 316 318 319 320 321
308 312 313 325 330 331 331 332 331 331 330 329 330 329 329 330 330 328 326 326 323 320 316 320 320 322 326 325 322 324 324 315 307 304 304 306 309 312 313 313 314 315 317
301 303 305 306 307 313 321 329 330 330 330 330 330 328 327 327 323 322 327 326 325 323 320 321 322 323 323 322 322 321 323 324 323 305 304 304 304 305 307 309 309 311 312
296 296 298 299 299 297 299 302 306 318 325 326 328 328 324 324 322 325 327 326 325 326 323 320 321 320 319 321 322 322 322 324 325 313 304 304 304 303 303 304 305 306 307
293 293 293 293 293 294 294 296 299 302 307 312 321 325 325 323 322 324 325 325 324 324 324 322 320 320 319 320 318 322 322 322 322 315 304 303 303 303 302 302 303 303 304
291 291 290 290 290 291 292 294 299 302 302 303 304 305 307 310 318 325 325 325 325 323 322 321 320 320 317 319 318 317 316 318 308 306 301 304 304 303 301 301 301 301 302
288 289 288 288 288 289 290 292 295 294 293 293 295 295 297 296 294 294 300 315 323 321 321 319 318 315 314 312 313 315 315 315 304 302 299 299 300 302 302 300 302 300 300
287 287 287 286 285 286 288 289 290 290 289 288 288 289 293 292 291 291 292 292 292 307 318 316 315 313 314 314 315 314 313 304 301 301 299 296 298 296 297 298 297 297 297
286 286 286 286 285 285 287 288 288 287 286 285 285 285 287 288 288 289 292 290 288 287 285 294 306 311 312 313 314 312 313 307 308 300 296 289 290 288 291 294 295 295 296
285 285 284 285 284 285 286 287 288 287 285 284 284 284 284 284 285 288 291 288 286 285 285 286 285 285 285 286 289 303 312 308 295 297 295 287 286 285 287 291 293 293 293
286 285 285 283 283 283 285 285 286 286 285 284 285 284 284 283 285 286 287 287 286 285 286 286 286 285 285 285 285 291 296 297 288 289 287 287 284 283 284 285 288 292 291
285 286 285 284 284 282 284 285 284 283 283 283 284 283 284 284 285 284 282 282 281 281 282 283 284 284 284 284 284 283 285 288 287 286 286 285 284 283 280 282 284 285 286

GFSMA_sfc_thetae_129.txt.gz
Theta_e
339 339 339 340 340 339 337 335 335 336 334 335 336 337 336 335 337 334 331 332 332 336 340 341 339 339 337 338 338 337 337 335 334 331 331 330 330 329 328 328 328 327 327
339 339 339 339 339 338 337 335 335 334 333 333 333 336 335 336 337 336 332 332 332 333 337 339 339 339 339 337 337 337 336 335 335 333 331 330 328 326 326 327 327 325 324
339 338 338 337 338 338 336 335 333 333 332 334 333 335 333 335 335 337 333 331 331 329 331 335 337 339 339 337 337 337 336 335 334 333 331 329 326 327 327 326 325 322 322
341 338 338 337 337 337 336 335 332 331 332 334 332 333 333 333 333 336 335 332 331 332 328 331 334 336 337 338 337 336 336 335 334 333 331 328 328 327 327 326 322 324 322
341 339 338 337 338 336 333 334 331 330 330 332 332 333 333 332 333 335 336 333 330 330 328 328 330 331 333 336 337 336 335 334 334 334 332 329 327 327 326 323 323 325 324
342 340 338 336 338 336 334 333 331 329 329 328 331 331 331 329 333 332 333 335 333 331 329 328 329 329 328 332 335 336 334 334 333 332 332 330 328 327 326 325 324 324 323
342 341 337 336 337 335 334 333 330 329 328 329 327 326 328 329 330 330 331 328 332 332 330 329 328 328 327 328 332 336 335 334 333 333 333 331 328 326 326 325 324 324 323
341 340 338 336 337 335 332 332 331 327 328 328 324 319 315 319 325 327 325 326 326 329 330 330 328 327 327 327 328 332 335 335 335 334 332 330 328 327 326 326 325 324 323
339 340 337 337 335 335 333 333 331 330 327 327 326 321 315 312 317 321 323 324 325 325 328 329 328 328 327 326 326 326 323 325 331 333 332 331 329 328 327 326 326 325 324
338 339 337 336 335 334 334 332 332 330 329 325 324 326 321 319 312 313 319 322 324 324 324 326 328 328 328 328 326 322 318 317 321 329 331 331 330 328 328 327 326 325 325
337 337 337 335 334 334 332 333 331 330 331 329 327 322 322 320 321 318 311 316 320 323 324 324 327 328 329 329 327 324 316 314 316 322 329 330 330 329 328 327 327 326 325
333 337 337 335 335 334 333 332 332 331 330 330 329 323 323 324 320 317 314 313 317 318 325 325 325 327 328 328 327 320 314 312 313 317 322 326 328 329 329 328 327 327 326
317 336 336 333 333 333 333 332 331 331 330 329 329 328 324 323 323 322 318 315 314 318 318 321 325 326 328 327 327 318 315 310 310 314 317 320 323 325 327 327 327 327 327
312 335 335 333 333 332 332 331 331 331 330 330 329 329 328 328 325 325 319 316 312 313 315 317 321 326 327 327 325 314 323 309 308 310 312 315 317 319 321 323 324 324 325
311 315 332 332 333 332 331 331 330 330 330 329 329 329 328 329 328 325 324 320 316 313 313 316 318 323 326 327 324 325 325 314 307 307 307 310 313 316 317 318 320 320 321
309 305 307 316 324 327 331 330 329 329 329 329 329 328 327 326 324 327 325 324 323 318 314 318 319 320 325 325 324 326 325 316 307 305 304 306 308 311 314 315 316 316 318
300 299 301 301 302 303 307 312 318 324 328 328 328 327 327 327 327 327 321 320 318 317 314 321 323 322 320 323 322 323 323 321 321 305 304 304 304 306 308 309 310 312 314
295 294 294 295 295 298 300 303 305 308 311 311 318 324 325 325 324 322 319 319 320 321 321 317 320 319 319 321 323 322 322 323 322 313 305 303 303 303 303 305 306 306 308
290 290 291 291 291 292 295 299 300 300 301 301 301 305 303 302 302 306 316 321 323 323 322 319 320 320 321 320 319 320 321 321 322 315 305 303 302 303 302 303 304 305 305
286 287 287 288 289 289 291 293 293 294 295 295 295 297 295 294 294 295 300 302 312 322 323 321 320 320 320 317 320 318 317 319 319 316 307 307 305 303 302 302 302 303 304
286 286 286 286 287 288 288 289 290 289 289 289 290 291 292 290 290 291 294 294 295 303 317 320 319 318 317 313 316 317 317 315 314 309 308 303 304 307 307 301 304 303 302
285 285 285 285 285 286 288 288 287 286 286 286 285 287 289 288 288 289 291 289 288 291 296 299 311 316 318 316 314 314 314 311 305 303 303 300 299 298 298 302 302 301 299
284 284 283 283 284 285 287 288 287 286 285 284 284 284 285 286 286 288 290 289 287 287 284 289 291 288 289 287 289 309 313 312 311 303 302 296 291 289 291 294 295 295 297
283 283 282 282 282 284 286 286 286 285 284 284 284 284 284 284 285 285 286 287 286 285 285 286 285 285 285 285 286 289 291 294 299 297 297 292 286 285 287 290 294 294 294
284 283 282 281 280 281 285 285 284 284 283 283 283 284 284 283 284 285 282 283 282 282 285 286 286 286 285 285 285 288 289 290 290 290 288 290 285 284 284 285 288 292 292
281 281 281 279 280 279 283 284 283 282 282 282 283 284 285 283 284 284 282 281 279 279 281 281 282 283 284 283 283 283 282 284 286 287 286 286 284 284 281 282 283 285 287

GFSMA_sfc_thetae_135.txt.gz
Theta_e
338 339 339 340 340 341 339 337 336 334 332 332 332 331 331 331 332 331 330 332 333 339 344 344 342 341 339 338 338 339 339 336 336 335 335 334 333 331 331 329 330 331 330
340 339 339 338 339 339 338 337 334 332 332 332 331 332 332 332 333 330 330 330 330 334 340 343 342 340 339 338 337 338 338 337 336 335 334 332 331 330 329 329 328 329 329
338 339 339 338 338 338 337 335 332 330 330 330 331 331 332 332 335 331 330 330 329 328 331 337 340 340 339 338 337 337 337 336 335 335 333 332 331 329 328 327 327 327 327
337 336 338 338 339 337 336 334 332 331 329 329 329 329 330 331 335 333 332 333 328 328 327 331 334 337 338 338 337 337 336 335 335 334 333 331 329 328 327 326 326 326 325
335 336 336 338 339 337 336 334 332 331 328 327 328 327 329 330 333 334 332 332 332 330 327 328 329 330 333 336 337 337 337 335 334 334 333 331 329 328 326 325 326 326 325
320 335 336 336 336 336 334 334 331 330 329 328 329 327 328 328 332 333 331 332 331 331 328 327 327 328 327 332 335 337 337 337 335 333 334 332 329 327 326 326 326 325 324
316 327 335 334 336 334 335 333 331 328 325 329 326 321 323 325 326 330 332 330 330 330 327 326 327 328 328 327 332 335 336 337 336 335 334 332 329 327 326 326 326 325 324
317 324 331 333 334 334 334 331 330 329 328 328 323 322 317 322 323 326 325 328 328 327 326 325 325 326 328 328 328 332 335 336 336 336 334 332 330 328 327 327 326 325 325
311 314 321 330 331 334 333 331 331 328 326 324 323 320 312 313 315 319 323 324 324 326 326 325 324 325 326 327 327 327 324 326 332 334 334 332 331 329 328 327 327 326 325
308 311 316 323 329 333 333 332 332 330 327 324 320 322 319 317 314 311 315 318 320 323 325 325 325 325 325 325 324 322 318 317 322 330 333 332 332 330 328 327 327 326 326
304 308 313 319 318 320 329 332 331 329 329 326 326 320 320 318 314 312 310 314 317 320 323 325 325 325 325 325 325 322 316 314 316 323 329 331 332 331 329 328 327 327 326
303 309 315 316 318 316 321 326 331 329 328 328 326 326 325 321 318 314 310 310 316 316 322 321 322 325 325 326 325 319 314 312 313 318 323 326 329 330 329 329 328 327 327
303 307 313 314 317 318 318 321 330 329 328 326 326 326 327 325 321 318 315 311 312 314 315 319 322 324 325 326 325 318 315 310 310 313 317 320 323 326 327 328 327 328 327
305 307 311 309 316 319 321 321 321 330 329 328 326 326 327 327 321 319 317 314 309 310 312 315 317 322 324 325 324 314 323 309 308 309 312 315 317 319 321 323 324 325 325
308 313 307 305 307 315 317 318 319 319 329 329 328 328 328 326 325 326 324 322 320 313 312 312 314 319 323 324 322 323 323 315 307 307 307 310 313 315 317 318 320 321 322
304 303 301 300 302 310 314 317 319 320 327 327 327 327 327 327 326 326 325 323 322 321 314 316 315 316 318 321 321 322 323 315 308 304 304 305 308 311 313 314 315 316 318
295 297 297 297 297 298 299 315 319 321 326 326 326 325 324 324 325 326 325 324 323 322 317 316 315 316 316 318 321 323 323 323 323 305 303 304 304 305 307 308 309 311 314
292 292 293 293 293 293 293 294 297 301 301 302 305 308 305 312 319 316 324 323 323 321 319 317 314 315 316 318 321 321 322 324 325 314 305 304 304 303 303 304 304 305 308
289 289 290 289 290 291 291 291 290 291 292 293 293 295 294 297 297 301 306 308 312 319 320 318 316 317 318 317 317 319 320 321 322 315 306 303 304 302 302 302 302 303 304
286 287 287 287 288 288 290 290 290 288 288 288 289 288 291 293 292 295 296 296 300 304 309 313 317 317 317 317 317 316 315 319 319 321 314 310 306 303 302 302 300 301 302
283 285 285 286 286 286 286 287 287 286 286 286 286 286 286 289 290 289 289 288 290 295 301 303 306 310 308 307 304 299 312 317 320 320 319 319 314 310 308 301 303 301 300
280 281 282 283 284 285 287 287 286 285 285 284 284 285 285 285 287 287 287 287 286 286 288 291 293 293 292 290 290 290 294 302 308 305 314 318 311 313 312 310 302 300 298
277 278 280 282 282 283 286 286 285 284 283 283 283 283 284 284 285 285 285 285 285 285 283 286 286 284 285 284 285 287 291 292 296 298 298 302 297 303 299 297 296 295 295
275 275 277 280 282 283 284 284 284 283 283 283 284 283 283 283 284 284 284 283 282 282 283 284 283 283 284 285 284 285 286 287 289 293 294 293 288 288 287 289 293 294 294
274 274 276 277 279 281 284 283 282 282 282 281 283 284 282 282 284 284 282 281 280 279 282 283 284 284 284 285 284 282 281 283 286 287 284 285 286 286 285 285 286 290 291
274 274 275 275 279 279 283 283 281 280 279 279 281 281 283 282 282 282 280 280 278 277 276 277 278 280 281 282 283 282 280 279 281 284 281 281 285 285 286 282 283 284 285